Time,TemperatureF,DewpointF,PressureIn,WindDirection,WindDirectionDegrees,WindSpeedMPH,WindSpeedGustMPH,Humidity,HourlyPrecipIn,Conditions,Clouds,dailyrainin,SoftwareType,DateUTC
2013-08-20 00:00:00,59.7,52.6,30.14,SE,135,0.0,0.0,77,0.00,,,0.00,WUHU21636XXSP,2013-08-20 07:00:00,
2013-08-20 00:01:00,59.7,52.6,30.14,SE,135,0.0,0.0,77,0.00,,,0.00,WUHU21636XXSP,2013-08-20 07:01:00,
2013-08-20 00:03:00,59.7,52.6,30.14,ESE,112,0.0,0.0,77,0.00,,,0.00,WUHU21636XXSP,2013-08-20 07:03:00,
2013-08-20 00:05:00,59.5,52.8,30.14,East,90,0.0,0.0,78,0.00,,,0.00,WUHU21636XXSP,2013-08-20 07:05:00,
2013-08-20 00:06:00,59.5,52.8,30.14,East,90,0.0,0.0,78,0.00,,,0.00,WUHU21636XXSP,2013-08-20 07:06:00,
2013-08-20 00:07:00,59.5,52.8,30.14,East,90,0.0,0.0,78,0.00,,,0.00,WUHU21636XXSP,2013-08-20 07:07:00,
2013-08-20 00:08:00,59.4,52.7,30.14,SE,135,0.0,0.0,78,0.00,,,0.00,WUHU21636XXSP,2013-08-20 07:08:00,
2013-08-20 00:10:00,59.4,52.7,30.13,ESE,112,0.0,0.0,78,0.00,,,0.00,WUHU21636XXSP,2013-08-20 07:10:00,
2013-08-20 00:11:00,59.4,52.7,30.13,ESE,112,0.0,0.0,78,0.00,,,0.00,WUHU21636XXSP,2013-08-20 07:11:00,
2013-08-20 00:12:00,59.2,52.5,30.13,East,90,0.0,0.0,78,0.00,,,0.00,WUHU21636XXSP,2013-08-20 07:12:00,
2013-08-20 00:13:00,59.2,52.5,30.13,East,90,0.0,0.0,78,0.00,,,0.00,WUHU21636XXSP,2013-08-20 07:13:00,
2013-08-20 00:16:00,59.2,52.5,30.13,ESE,112,1.5,1.5,78,0.00,,,0.00,WUHU21636XXSP,2013-08-20 07:16:00,
2013-08-20 00:17:00,59.0,52.3,30.13,ESE,112,1.5,1.5,78,0.00,,,0.00,WUHU21636XXSP,2013-08-20 07:17:00,
2013-08-20 00:18:00,59.0,52.3,30.13,ESE,112,1.5,1.5,78,0.00,,,0.00,WUHU21636XXSP,2013-08-20 07:18:00,
2013-08-20 00:19:00,59.0,52.3,30.13,ESE,112,1.5,1.5,78,0.00,,,0.00,WUHU21636XXSP,2013-08-20 07:19:00,
2013-08-20 00:21:00,59.0,52.3,30.14,East,90,0.0,1.5,78,0.00,,,0.00,WUHU21636XXSP,2013-08-20 07:21:00,
2013-08-20 00:22:00,59.0,52.3,30.14,East,90,0.0,1.5,78,0.00,,,0.00,WUHU21636XXSP,2013-08-20 07:22:00,
2013-08-20 00:23:00,59.0,52.3,30.13,East,90,0.0,1.5,78,0.00,,,0.00,WUHU21636XXSP,2013-08-20 07:23:00,
2013-08-20 00:24:00,59.0,52.3,30.13,East,90,0.0,1.5,78,0.00,,,0.00,WUHU21636XXSP,2013-08-20 07:24:00,
2013-08-20 00:26:00,59.0,52.3,30.14,ENE,67,0.0,1.5,78,0.00,,,0.00,WUHU21636XXSP,2013-08-20 07:26:00,
2013-08-20 00:27:00,59.0,52.3,30.13,ENE,67,0.0,1.5,78,0.00,,,0.00,WUHU21636XXSP,2013-08-20 07:27:00,
2013-08-20 00:28:00,59.0,52.3,30.13,SE,135,0.0,1.5,78,0.00,,,0.00,WUHU21636XXSP,2013-08-20 07:28:00,
2013-08-20 00:29:00,59.0,52.3,30.13,SE,135,0.0,0.0,78,0.00,,,0.00,WUHU21636XXSP,2013-08-20 07:29:00,
2013-08-20 00:31:00,59.0,52.3,30.14,ESE,112,0.0,0.0,78,0.00,,,0.00,WUHU21636XXSP,2013-08-20 07:31:00,
2013-08-20 00:32:00,59.0,52.3,30.14,ESE,112,0.0,0.0,78,0.00,,,0.00,WUHU21636XXSP,2013-08-20 07:32:00,
2013-08-20 00:33:00,59.0,52.3,30.14,ESE,112,0.0,0.0,78,0.00,,,0.00,WUHU21636XXSP,2013-08-20 07:33:00,
2013-08-20 00:34:00,59.0,52.0,30.14,ESE,112,0.0,0.0,77,0.00,,,0.00,WUHU21636XXSP,2013-08-20 07:34:00,
2013-08-20 00:37:00,59.0,52.0,30.14,East,90,0.0,0.0,77,0.00,,,0.00,WUHU21636XXSP,2013-08-20 07:37:00,
2013-08-20 00:38:00,59.0,52.0,30.14,ESE,112,0.0,0.0,77,0.00,,,0.00,WUHU21636XXSP,2013-08-20 07:38:00,
2013-08-20 00:39:00,59.0,52.0,30.14,ESE,112,0.0,0.0,77,0.00,,,0.00,WUHU21636XXSP,2013-08-20 07:39:00,
2013-08-20 00:42:00,59.0,52.0,30.14,East,90,0.0,0.0,77,0.00,,,0.00,WUHU21636XXSP,2013-08-20 07:42:00,
2013-08-20 00:43:00,59.0,52.0,30.14,East,90,0.0,0.0,77,0.00,,,0.00,WUHU21636XXSP,2013-08-20 07:43:00,
2013-08-20 00:44:00,59.0,52.0,30.14,ENE,67,0.0,0.0,77,0.00,,,0.00,WUHU21636XXSP,2013-08-20 07:44:00,
2013-08-20 00:47:00,59.0,52.0,30.14,ENE,67,0.0,0.0,77,0.00,,,0.00,WUHU21636XXSP,2013-08-20 07:47:00,
2013-08-20 00:48:00,59.0,52.0,30.14,ENE,67,0.0,0.0,77,0.00,,,0.00,WUHU21636XXSP,2013-08-20 07:48:00,
2013-08-20 00:50:00,59.0,52.0,30.14,ESE,112,0.0,0.0,77,0.00,,,0.00,WUHU21636XXSP,2013-08-20 07:50:00,
2013-08-20 00:52:00,59.0,52.0,30.14,ESE,112,0.0,0.0,77,0.00,,,0.00,WUHU21636XXSP,2013-08-20 07:52:00,
2013-08-20 00:53:00,59.0,52.0,30.14,ESE,112,0.0,0.0,77,0.00,,,0.00,WUHU21636XXSP,2013-08-20 07:53:00,
2013-08-20 00:54:00,59.0,52.0,30.14,ESE,112,0.0,0.0,77,0.00,,,0.00,WUHU21636XXSP,2013-08-20 07:54:00,
2013-08-20 00:55:00,59.0,52.0,30.14,ESE,112,0.0,0.0,77,0.00,,,0.00,WUHU21636XXSP,2013-08-20 07:55:00,
2013-08-20 00:57:00,59.0,52.0,30.14,ESE,112,0.0,0.0,77,0.00,,,0.00,WUHU21636XXSP,2013-08-20 07:57:00,
2013-08-20 00:59:00,59.0,52.0,30.14,ESE,112,0.0,0.0,77,0.00,,,0.00,WUHU21636XXSP,2013-08-20 07:59:00,
2013-08-20 01:00:00,59.0,52.0,30.14,ESE,112,0.0,0.0,77,0.00,,,0.00,WUHU21636XXSP,2013-08-20 08:00:00,
2013-08-20 01:02:00,59.0,52.0,30.14,ESE,112,0.0,0.0,77,0.00,,,0.00,WUHU21636XXSP,2013-08-20 08:02:00,
2013-08-20 01:03:00,59.0,52.0,30.14,ESE,112,0.0,0.0,77,0.00,,,0.00,WUHU21636XXSP,2013-08-20 08:03:00,
2013-08-20 01:04:00,59.0,51.6,30.14,ESE,112,0.0,0.0,76,0.00,,,0.00,WUHU21636XXSP,2013-08-20 08:04:00,
2013-08-20 01:05:00,59.0,51.6,30.14,ESE,112,0.0,0.0,76,0.00,,,0.00,WUHU21636XXSP,2013-08-20 08:05:00,
2013-08-20 01:07:00,59.0,51.6,30.14,SE,135,0.0,0.0,76,0.00,,,0.00,WUHU21636XXSP,2013-08-20 08:07:00,
2013-08-20 01:08:00,59.0,51.6,30.14,SE,135,0.0,0.0,76,0.00,,,0.00,WUHU21636XXSP,2013-08-20 08:08:00,
2013-08-20 01:09:00,59.0,51.6,30.14,ESE,112,0.0,0.0,76,0.00,,,0.00,WUHU21636XXSP,2013-08-20 08:09:00,
2013-08-20 01:11:00,59.0,51.6,30.14,ESE,112,0.0,0.0,76,0.00,,,0.00,WUHU21636XXSP,2013-08-20 08:11:00,
2013-08-20 01:12:00,59.0,51.6,30.14,East,90,0.0,0.0,76,0.00,,,0.00,WUHU21636XXSP,2013-08-20 08:12:00,
2013-08-20 01:13:00,59.0,51.6,30.14,East,90,0.0,0.0,76,0.00,,,0.00,WUHU21636XXSP,2013-08-20 08:13:00,
2013-08-20 01:14:00,59.0,51.6,30.14,East,90,0.0,0.0,76,0.00,,,0.00,WUHU21636XXSP,2013-08-20 08:14:00,
2013-08-20 01:16:00,59.0,51.6,30.14,East,90,0.0,0.0,76,0.00,,,0.00,WUHU21636XXSP,2013-08-20 08:16:00,
2013-08-20 01:17:00,59.0,51.6,30.14,ESE,112,0.0,0.0,76,0.00,,,0.00,WUHU21636XXSP,2013-08-20 08:17:00,
2013-08-20 01:18:00,59.0,51.6,30.14,ESE,112,0.0,0.0,76,0.00,,,0.00,WUHU21636XXSP,2013-08-20 08:18:00,
2013-08-20 01:19:00,59.0,51.6,30.14,NE,45,0.0,0.0,76,0.00,,,0.00,WUHU21636XXSP,2013-08-20 08:19:00,
2013-08-20 01:21:00,59.0,51.3,30.14,ESE,112,0.0,0.0,75,0.00,,,0.00,WUHU21636XXSP,2013-08-20 08:21:00,
2013-08-20 01:22:00,59.0,51.3,30.14,ESE,112,0.0,0.0,75,0.00,,,0.00,WUHU21636XXSP,2013-08-20 08:22:00,
2013-08-20 01:23:00,59.0,51.6,30.14,ESE,112,0.0,0.0,76,0.00,,,0.00,WUHU21636XXSP,2013-08-20 08:23:00,
2013-08-20 01:24:00,59.0,51.6,30.14,ESE,112,0.0,0.0,76,0.00,,,0.00,WUHU21636XXSP,2013-08-20 08:24:00,
2013-08-20 01:25:00,59.0,51.6,30.14,SE,135,0.0,0.0,76,0.00,,,0.00,WUHU21636XXSP,2013-08-20 08:25:00,
2013-08-20 01:26:00,59.0,51.6,30.14,SE,135,0.0,0.0,76,0.00,,,0.00,WUHU21636XXSP,2013-08-20 08:26:00,
2013-08-20 01:27:00,59.0,51.6,30.14,SE,135,0.0,0.0,76,0.00,,,0.00,WUHU21636XXSP,2013-08-20 08:27:00,
2013-08-20 01:28:00,59.0,51.6,30.14,SE,135,0.0,0.0,76,0.00,,,0.00,WUHU21636XXSP,2013-08-20 08:28:00,
2013-08-20 01:29:00,59.0,51.6,30.14,ESE,112,0.0,0.0,76,0.00,,,0.00,WUHU21636XXSP,2013-08-20 08:29:00,
2013-08-20 01:30:00,59.0,51.6,30.14,ESE,112,0.0,0.0,76,0.00,,,0.00,WUHU21636XXSP,2013-08-20 08:30:00,
2013-08-20 01:31:00,59.0,51.6,30.14,ESE,112,0.0,0.0,76,0.00,,,0.00,WUHU21636XXSP,2013-08-20 08:31:00,
2013-08-20 01:33:00,59.0,51.6,30.14,SE,135,0.0,0.0,76,0.00,,,0.00,WUHU21636XXSP,2013-08-20 08:33:00,
2013-08-20 01:34:00,59.0,51.6,30.14,SE,135,0.0,0.0,76,0.00,,,0.00,WUHU21636XXSP,2013-08-20 08:34:00,
2013-08-20 01:35:00,59.0,51.6,30.14,SE,135,0.0,0.0,76,0.00,,,0.00,WUHU21636XXSP,2013-08-20 08:35:00,
2013-08-20 01:36:00,59.0,51.6,30.14,ESE,112,0.0,0.0,76,0.00,,,0.00,WUHU21636XXSP,2013-08-20 08:36:00,
2013-08-20 01:38:00,59.0,51.6,30.14,ESE,112,0.0,0.0,76,0.00,,,0.00,WUHU21636XXSP,2013-08-20 08:38:00,
2013-08-20 01:40:00,59.0,51.6,30.14,ESE,112,0.0,0.0,76,0.00,,,0.00,WUHU21636XXSP,2013-08-20 08:40:00,
2013-08-20 01:41:00,59.0,51.6,30.14,ESE,112,0.0,0.0,76,0.00,,,0.00,WUHU21636XXSP,2013-08-20 08:41:00,
2013-08-20 01:43:00,59.0,51.6,30.14,ESE,112,0.0,0.0,76,0.00,,,0.00,WUHU21636XXSP,2013-08-20 08:43:00,
2013-08-20 01:44:00,59.0,51.6,30.14,ESE,112,0.0,0.0,76,0.00,,,0.00,WUHU21636XXSP,2013-08-20 08:44:00,
2013-08-20 01:45:00,59.0,52.0,30.14,ESE,112,0.0,0.0,77,0.00,,,0.00,WUHU21636XXSP,2013-08-20 08:45:00,
2013-08-20 01:46:00,59.0,52.0,30.14,ESE,112,0.0,0.0,77,0.00,,,0.00,WUHU21636XXSP,2013-08-20 08:46:00,
2013-08-20 01:49:00,59.0,52.0,30.14,ESE,112,0.0,0.0,77,0.00,,,0.00,WUHU21636XXSP,2013-08-20 08:49:00,
2013-08-20 01:50:00,59.0,52.0,30.14,ESE,112,0.0,0.0,77,0.00,,,0.00,WUHU21636XXSP,2013-08-20 08:50:00,
2013-08-20 01:51:00,59.0,52.0,30.14,ESE,112,0.0,0.0,77,0.00,,,0.00,WUHU21636XXSP,2013-08-20 08:51:00,
2013-08-20 01:54:00,59.0,52.0,30.14,ESE,112,0.0,0.0,77,0.00,,,0.00,WUHU21636XXSP,2013-08-20 08:54:00,
2013-08-20 01:55:00,59.0,51.6,30.14,ESE,112,0.0,0.0,76,0.00,,,0.00,WUHU21636XXSP,2013-08-20 08:55:00,
2013-08-20 01:56:00,59.0,51.6,30.14,ESE,112,0.0,0.0,76,0.00,,,0.00,WUHU21636XXSP,2013-08-20 08:56:00,
2013-08-20 01:57:00,59.0,51.6,30.14,ESE,112,0.0,0.0,76,0.00,,,0.00,WUHU21636XXSP,2013-08-20 08:57:00,
2013-08-20 01:59:00,59.0,51.6,30.14,ESE,112,0.0,0.0,76,0.00,,,0.00,WUHU21636XXSP,2013-08-20 08:59:00,
2013-08-20 02:00:00,59.0,51.6,30.14,East,90,0.0,0.0,76,0.00,,,0.00,WUHU21636XXSP,2013-08-20 09:00:00,
2013-08-20 02:01:00,59.0,51.6,30.14,East,90,0.0,0.0,76,0.00,,,0.00,WUHU21636XXSP,2013-08-20 09:01:00,
2013-08-20 02:02:00,59.0,51.6,30.14,ESE,112,0.0,0.0,76,0.00,,,0.00,WUHU21636XXSP,2013-08-20 09:02:00,
2013-08-20 02:04:00,59.0,51.6,30.14,ESE,112,0.0,0.0,76,0.00,,,0.00,WUHU21636XXSP,2013-08-20 09:04:00,
2013-08-20 02:05:00,59.0,51.6,30.14,ESE,112,0.0,0.0,76,0.00,,,0.00,WUHU21636XXSP,2013-08-20 09:05:00,
2013-08-20 02:06:00,59.0,51.6,30.14,ESE,112,0.4,0.4,76,0.00,,,0.00,WUHU21636XXSP,2013-08-20 09:06:00,
2013-08-20 02:07:00,59.0,51.6,30.14,ESE,112,0.4,0.4,76,0.00,,,0.00,WUHU21636XXSP,2013-08-20 09:07:00,
2013-08-20 02:09:00,59.0,51.6,30.14,ESE,112,0.4,0.4,76,0.00,,,0.00,WUHU21636XXSP,2013-08-20 09:09:00,
2013-08-20 02:10:00,59.0,51.6,30.14,ESE,112,0.4,0.4,76,0.00,,,0.00,WUHU21636XXSP,2013-08-20 09:10:00,
2013-08-20 02:11:00,59.0,51.6,30.14,East,90,1.1,1.1,76,0.00,,,0.00,WUHU21636XXSP,2013-08-20 09:11:00,
2013-08-20 02:12:00,59.0,51.6,30.14,East,90,1.1,1.1,76,0.00,,,0.00,WUHU21636XXSP,2013-08-20 09:12:00,
2013-08-20 02:14:00,59.0,51.6,30.14,East,90,1.1,1.1,76,0.00,,,0.00,WUHU21636XXSP,2013-08-20 09:14:00,
2013-08-20 02:15:00,59.0,51.6,30.14,ESE,112,0.0,1.1,76,0.00,,,0.00,WUHU21636XXSP,2013-08-20 09:15:00,
2013-08-20 02:16:00,59.0,51.6,30.14,ESE,112,0.0,1.1,76,0.00,,,0.00,WUHU21636XXSP,2013-08-20 09:16:00,
2013-08-20 02:17:00,59.0,51.6,30.14,ESE,112,0.0,1.1,76,0.00,,,0.00,WUHU21636XXSP,2013-08-20 09:17:00,
2013-08-20 02:19:00,59.0,51.6,30.14,ESE,112,0.0,1.1,76,0.00,,,0.00,WUHU21636XXSP,2013-08-20 09:19:00,
2013-08-20 02:20:00,59.0,51.6,30.14,ESE,112,0.0,1.1,76,0.00,,,0.00,WUHU21636XXSP,2013-08-20 09:20:00,
2013-08-20 02:21:00,59.0,51.6,30.14,ESE,112,0.0,1.1,76,0.00,,,0.00,WUHU21636XXSP,2013-08-20 09:21:00,
2013-08-20 02:23:00,59.0,51.6,30.14,ESE,112,0.0,0.0,76,0.00,,,0.00,WUHU21636XXSP,2013-08-20 09:23:00,
2013-08-20 02:25:00,59.0,51.6,30.14,ESE,112,0.0,0.0,76,0.00,,,0.00,WUHU21636XXSP,2013-08-20 09:25:00,
2013-08-20 02:26:00,59.0,51.6,30.14,SE,135,0.0,0.0,76,0.00,,,0.00,WUHU21636XXSP,2013-08-20 09:26:00,
2013-08-20 02:28:00,58.8,51.8,30.14,SSE,157,0.0,0.0,77,0.00,,,0.00,WUHU21636XXSP,2013-08-20 09:28:00,
2013-08-20 02:30:00,58.8,51.8,30.14,SSE,157,0.0,0.0,77,0.00,,,0.00,WUHU21636XXSP,2013-08-20 09:30:00,
2013-08-20 02:31:00,58.8,51.8,30.14,SSE,157,0.0,0.0,77,0.00,,,0.00,WUHU21636XXSP,2013-08-20 09:31:00,
2013-08-20 02:32:00,58.6,51.6,30.14,ESE,112,0.0,0.0,77,0.00,,,0.00,WUHU21636XXSP,2013-08-20 09:32:00,
2013-08-20 02:33:00,58.6,51.6,30.14,ESE,112,0.0,0.0,77,0.00,,,0.00,WUHU21636XXSP,2013-08-20 09:33:00,
2013-08-20 02:35:00,58.6,51.6,30.14,ESE,112,0.0,0.0,77,0.00,,,0.00,WUHU21636XXSP,2013-08-20 09:35:00,
2013-08-20 02:36:00,58.6,51.6,30.14,ESE,112,0.0,0.0,77,0.00,,,0.00,WUHU21636XXSP,2013-08-20 09:36:00,
2013-08-20 02:37:00,58.6,51.6,30.14,ESE,112,0.0,0.0,77,0.00,,,0.00,WUHU21636XXSP,2013-08-20 09:37:00,
2013-08-20 02:38:00,58.6,51.6,30.14,ESE,112,0.0,0.0,77,0.00,,,0.00,WUHU21636XXSP,2013-08-20 09:38:00,
2013-08-20 02:40:00,58.6,51.6,30.14,ESE,112,0.0,0.0,77,0.00,,,0.00,WUHU21636XXSP,2013-08-20 09:40:00,
2013-08-20 02:41:00,58.6,51.6,30.14,ESE,112,0.0,0.0,77,0.00,,,0.00,WUHU21636XXSP,2013-08-20 09:41:00,
2013-08-20 02:42:00,58.6,51.6,30.14,ESE,112,0.0,0.0,77,0.00,,,0.00,WUHU21636XXSP,2013-08-20 09:42:00,
2013-08-20 02:43:00,58.6,51.6,30.14,ESE,112,0.0,0.0,77,0.00,,,0.00,WUHU21636XXSP,2013-08-20 09:43:00,
2013-08-20 02:45:00,58.6,51.6,30.14,ESE,112,0.0,0.0,77,0.00,,,0.00,WUHU21636XXSP,2013-08-20 09:45:00,
2013-08-20 02:46:00,58.6,51.6,30.14,ESE,112,0.0,0.0,77,0.00,,,0.00,WUHU21636XXSP,2013-08-20 09:46:00,
2013-08-20 02:47:00,58.6,51.6,30.14,ESE,112,0.0,0.0,77,0.00,,,0.00,WUHU21636XXSP,2013-08-20 09:47:00,
2013-08-20 02:48:00,58.6,51.6,30.15,ESE,112,0.0,0.0,77,0.00,,,0.00,WUHU21636XXSP,2013-08-20 09:48:00,
2013-08-20 02:50:00,58.5,51.8,30.15,ESE,112,0.0,0.0,78,0.00,,,0.00,WUHU21636XXSP,2013-08-20 09:50:00,
2013-08-20 02:51:00,58.3,51.6,30.15,East,90,0.0,0.0,78,0.00,,,0.00,WUHU21636XXSP,2013-08-20 09:51:00,
2013-08-20 02:52:00,58.3,51.6,30.15,East,90,0.0,0.0,78,0.00,,,0.00,WUHU21636XXSP,2013-08-20 09:52:00,
2013-08-20 02:53:00,58.3,51.6,30.15,East,90,0.0,0.0,78,0.00,,,0.00,WUHU21636XXSP,2013-08-20 09:53:00,
2013-08-20 02:56:00,58.3,51.6,30.15,East,90,0.0,0.0,78,0.00,,,0.00,WUHU21636XXSP,2013-08-20 09:56:00,
2013-08-20 02:57:00,58.3,51.6,30.15,East,90,0.0,0.0,78,0.00,,,0.00,WUHU21636XXSP,2013-08-20 09:57:00,
2013-08-20 02:58:00,58.3,52.0,30.15,ESE,112,0.0,0.0,79,0.00,,,0.00,WUHU21636XXSP,2013-08-20 09:58:00,
2013-08-20 03:01:00,58.1,51.8,30.15,ESE,112,0.0,0.0,79,0.00,,,0.00,WUHU21636XXSP,2013-08-20 10:01:00,
2013-08-20 03:02:00,58.1,51.8,30.15,ESE,112,0.0,0.0,79,0.00,,,0.00,WUHU21636XXSP,2013-08-20 10:02:00,
2013-08-20 03:03:00,58.1,51.8,30.15,ESE,112,0.0,0.0,79,0.00,,,0.00,WUHU21636XXSP,2013-08-20 10:03:00,
2013-08-20 03:04:00,57.9,51.6,30.15,ESE,112,0.0,0.0,79,0.00,,,0.00,WUHU21636XXSP,2013-08-20 10:04:00,
2013-08-20 03:06:00,57.9,51.6,30.15,ESE,112,0.0,0.0,79,0.00,,,0.00,WUHU21636XXSP,2013-08-20 10:06:00,
2013-08-20 03:07:00,57.9,51.6,30.15,ESE,112,0.0,0.0,79,0.00,,,0.00,WUHU21636XXSP,2013-08-20 10:07:00,
2013-08-20 03:08:00,57.9,51.6,30.15,NE,45,0.0,0.0,79,0.00,,,0.00,WUHU21636XXSP,2013-08-20 10:08:00,
2013-08-20 03:10:00,57.9,51.6,30.15,NE,45,0.0,0.0,79,0.00,,,0.00,WUHU21636XXSP,2013-08-20 10:10:00,
2013-08-20 03:11:00,57.7,51.7,30.15,ENE,67,0.0,0.0,80,0.00,,,0.00,WUHU21636XXSP,2013-08-20 10:11:00,
2013-08-20 03:12:00,57.7,51.7,30.15,ENE,67,0.0,0.0,80,0.00,,,0.00,WUHU21636XXSP,2013-08-20 10:12:00,
2013-08-20 03:13:00,57.7,51.7,30.15,ENE,67,0.0,0.0,80,0.00,,,0.00,WUHU21636XXSP,2013-08-20 10:13:00,
2013-08-20 03:15:00,57.7,51.7,30.15,ENE,67,0.0,0.0,80,0.00,,,0.00,WUHU21636XXSP,2013-08-20 10:15:00,
2013-08-20 03:16:00,57.7,51.7,30.15,ENE,67,0.0,0.0,80,0.00,,,0.00,WUHU21636XXSP,2013-08-20 10:16:00,
2013-08-20 03:18:00,57.6,51.6,30.15,ENE,67,0.0,0.0,80,0.00,,,0.00,WUHU21636XXSP,2013-08-20 10:18:00,
2013-08-20 03:19:00,57.6,51.6,30.15,ENE,67,0.0,0.0,80,0.00,,,0.00,WUHU21636XXSP,2013-08-20 10:19:00,
2013-08-20 03:20:00,57.6,51.6,30.16,ENE,67,0.0,0.0,80,0.00,,,0.00,WUHU21636XXSP,2013-08-20 10:20:00,
2013-08-20 03:21:00,57.6,51.6,30.16,ENE,67,0.0,0.0,80,0.00,,,0.00,WUHU21636XXSP,2013-08-20 10:21:00,
2013-08-20 03:23:00,57.4,51.4,30.15,ENE,67,0.0,0.0,80,0.00,,,0.00,WUHU21636XXSP,2013-08-20 10:23:00,
2013-08-20 03:24:00,57.4,51.4,30.15,ENE,67,0.0,0.0,80,0.00,,,0.00,WUHU21636XXSP,2013-08-20 10:24:00,
2013-08-20 03:25:00,57.4,51.4,30.15,ENE,67,0.0,0.0,80,0.00,,,0.00,WUHU21636XXSP,2013-08-20 10:25:00,
2013-08-20 03:26:00,57.2,51.2,30.15,ENE,67,0.0,0.0,80,0.00,,,0.00,WUHU21636XXSP,2013-08-20 10:26:00,
2013-08-20 03:28:00,57.2,51.2,30.16,ENE,67,0.0,0.0,80,0.00,,,0.00,WUHU21636XXSP,2013-08-20 10:28:00,
2013-08-20 03:29:00,57.0,51.1,30.16,ENE,67,0.0,0.0,80,0.00,,,0.00,WUHU21636XXSP,2013-08-20 10:29:00,
2013-08-20 03:30:00,57.2,51.6,30.16,ENE,67,0.0,0.0,81,0.00,,,0.00,WUHU21636XXSP,2013-08-20 10:30:00,
2013-08-20 03:31:00,57.2,51.6,30.16,ENE,67,0.0,0.0,81,0.00,,,0.00,WUHU21636XXSP,2013-08-20 10:31:00,
2013-08-20 03:32:00,57.0,51.4,30.15,ESE,112,0.0,0.0,81,0.00,,,0.00,WUHU21636XXSP,2013-08-20 10:32:00,
2013-08-20 03:33:00,57.0,51.4,30.15,ESE,112,0.0,0.0,81,0.00,,,0.00,WUHU21636XXSP,2013-08-20 10:33:00,
2013-08-20 03:34:00,57.0,51.7,30.15,ESE,112,0.0,0.0,82,0.00,,,0.00,WUHU21636XXSP,2013-08-20 10:34:00,
2013-08-20 03:35:00,57.0,51.7,30.15,ESE,112,0.0,0.0,82,0.00,,,0.00,WUHU21636XXSP,2013-08-20 10:35:00,
2013-08-20 03:36:00,57.0,51.7,30.15,ESE,112,0.0,0.0,82,0.00,,,0.00,WUHU21636XXSP,2013-08-20 10:36:00,
2013-08-20 03:37:00,57.0,51.7,30.15,ESE,112,0.0,0.0,82,0.00,,,0.00,WUHU21636XXSP,2013-08-20 10:37:00,
2013-08-20 03:39:00,57.0,51.7,30.15,ESE,112,0.0,0.0,82,0.00,,,0.00,WUHU21636XXSP,2013-08-20 10:39:00,
2013-08-20 03:40:00,57.0,51.7,30.15,ESE,112,0.0,0.0,82,0.00,,,0.00,WUHU21636XXSP,2013-08-20 10:40:00,
2013-08-20 03:41:00,57.0,51.7,30.16,ESE,112,0.0,0.0,82,0.00,,,0.00,WUHU21636XXSP,2013-08-20 10:41:00,
2013-08-20 03:42:00,57.0,51.7,30.16,ESE,112,0.0,0.0,82,0.00,,,0.00,WUHU21636XXSP,2013-08-20 10:42:00,
2013-08-20 03:44:00,57.0,51.7,30.16,ESE,112,0.0,0.0,82,0.00,,,0.00,WUHU21636XXSP,2013-08-20 10:44:00,
2013-08-20 03:45:00,57.0,51.7,30.16,ESE,112,0.0,0.0,82,0.00,,,0.00,WUHU21636XXSP,2013-08-20 10:45:00,
2013-08-20 03:46:00,57.2,51.9,30.16,ESE,112,0.0,0.0,82,0.00,,,0.00,WUHU21636XXSP,2013-08-20 10:46:00,
2013-08-20 03:48:00,57.0,51.7,30.16,ESE,112,0.0,0.0,82,0.00,,,0.00,WUHU21636XXSP,2013-08-20 10:48:00,
2013-08-20 03:49:00,57.2,51.9,30.16,ESE,112,0.0,0.0,82,0.00,,,0.00,WUHU21636XXSP,2013-08-20 10:49:00,
2013-08-20 03:50:00,57.2,51.9,30.16,ESE,112,0.0,0.0,82,0.00,,,0.00,WUHU21636XXSP,2013-08-20 10:50:00,
2013-08-20 03:51:00,57.2,51.9,30.16,ESE,112,0.0,0.0,82,0.00,,,0.00,WUHU21636XXSP,2013-08-20 10:51:00,
2013-08-20 03:53:00,57.4,52.1,30.16,ESE,112,0.0,0.0,82,0.00,,,0.00,WUHU21636XXSP,2013-08-20 10:53:00,
2013-08-20 03:54:00,57.4,52.1,30.16,ESE,112,0.0,0.0,82,0.00,,,0.00,WUHU21636XXSP,2013-08-20 10:54:00,
2013-08-20 03:55:00,57.4,52.1,30.16,ESE,112,0.0,0.0,82,0.00,,,0.00,WUHU21636XXSP,2013-08-20 10:55:00,
2013-08-20 03:56:00,57.4,52.1,30.16,SE,135,2.2,2.2,82,0.00,,,0.00,WUHU21636XXSP,2013-08-20 10:56:00,
2013-08-20 03:58:00,57.4,52.1,30.16,SE,135,2.2,2.2,82,0.00,,,0.00,WUHU21636XXSP,2013-08-20 10:58:00,
2013-08-20 04:00:00,57.4,52.1,30.16,SE,135,2.2,2.2,82,0.00,,,0.00,WUHU21636XXSP,2013-08-20 11:00:00,
2013-08-20 04:01:00,57.4,52.1,30.16,ESE,112,0.0,2.2,82,0.00,,,0.00,WUHU21636XXSP,2013-08-20 11:01:00,
2013-08-20 04:03:00,57.4,52.1,30.16,ESE,112,0.0,2.2,82,0.00,,,0.00,WUHU21636XXSP,2013-08-20 11:03:00,
2013-08-20 04:05:00,57.4,52.1,30.16,ESE,112,0.0,2.2,82,0.00,,,0.00,WUHU21636XXSP,2013-08-20 11:05:00,
2013-08-20 04:06:00,57.4,52.1,30.17,ESE,112,0.0,2.2,82,0.00,,,0.00,WUHU21636XXSP,2013-08-20 11:06:00,
2013-08-20 04:08:00,57.4,52.1,30.17,ESE,112,0.0,0.0,82,0.00,,,0.00,WUHU21636XXSP,2013-08-20 11:08:00,
2013-08-20 04:10:00,57.4,51.8,30.17,ESE,112,0.0,0.0,81,0.00,,,0.00,WUHU21636XXSP,2013-08-20 11:10:00,
2013-08-20 04:11:00,57.6,52.3,30.17,ESE,112,0.0,0.0,82,0.00,,,0.00,WUHU21636XXSP,2013-08-20 11:11:00,
2013-08-20 04:13:00,57.6,52.3,30.17,ESE,112,0.0,0.0,82,0.00,,,0.00,WUHU21636XXSP,2013-08-20 11:13:00,
2013-08-20 04:15:00,57.6,52.3,30.17,ESE,112,0.0,0.0,82,0.00,,,0.00,WUHU21636XXSP,2013-08-20 11:15:00,
2013-08-20 04:16:00,57.6,52.3,30.17,ESE,112,0.0,0.0,82,0.00,,,0.00,WUHU21636XXSP,2013-08-20 11:16:00,
2013-08-20 04:18:00,57.6,52.3,30.17,ESE,112,0.0,0.0,82,0.00,,,0.00,WUHU21636XXSP,2013-08-20 11:18:00,
2013-08-20 04:21:00,57.6,52.3,30.17,ESE,112,0.0,0.0,82,0.00,,,0.00,WUHU21636XXSP,2013-08-20 11:21:00,
2013-08-20 04:22:00,57.4,52.1,30.17,East,90,0.0,0.0,82,0.00,,,0.00,WUHU21636XXSP,2013-08-20 11:22:00,
2013-08-20 04:24:00,57.6,52.0,30.17,East,90,0.0,0.0,81,0.00,,,0.00,WUHU21636XXSP,2013-08-20 11:24:00,
2013-08-20 04:26:00,57.6,52.0,30.17,East,90,0.0,0.0,81,0.00,,,0.00,WUHU21636XXSP,2013-08-20 11:26:00,
2013-08-20 04:27:00,57.6,52.0,30.17,East,90,0.0,0.0,81,0.00,,,0.00,WUHU21636XXSP,2013-08-20 11:27:00,
2013-08-20 04:29:00,57.6,52.0,30.17,NE,45,0.0,0.0,81,0.00,,,0.00,WUHU21636XXSP,2013-08-20 11:29:00,
2013-08-20 04:31:00,57.6,52.0,30.17,NE,45,0.0,0.0,81,0.00,,,0.00,WUHU21636XXSP,2013-08-20 11:31:00,
2013-08-20 04:32:00,57.6,52.0,30.17,NE,45,0.0,0.0,81,0.00,,,0.00,WUHU21636XXSP,2013-08-20 11:32:00,
2013-08-20 04:35:00,57.6,52.0,30.17,East,90,0.0,0.0,81,0.00,,,0.00,WUHU21636XXSP,2013-08-20 11:35:00,
2013-08-20 04:36:00,57.6,52.0,30.17,East,90,0.0,0.0,81,0.00,,,0.00,WUHU21636XXSP,2013-08-20 11:36:00,
2013-08-20 04:37:00,57.6,52.0,30.17,East,90,0.0,0.0,81,0.00,,,0.00,WUHU21636XXSP,2013-08-20 11:37:00,
2013-08-20 04:38:00,57.6,52.0,30.17,East,90,0.0,0.0,81,0.00,,,0.00,WUHU21636XXSP,2013-08-20 11:38:00,
2013-08-20 04:40:00,57.6,52.0,30.17,ESE,112,0.0,0.0,81,0.00,,,0.00,WUHU21636XXSP,2013-08-20 11:40:00,
2013-08-20 04:41:00,57.6,52.0,30.17,ESE,112,0.0,0.0,81,0.00,,,0.00,WUHU21636XXSP,2013-08-20 11:41:00,
2013-08-20 04:42:00,57.6,52.0,30.17,ESE,112,0.0,0.0,81,0.00,,,0.00,WUHU21636XXSP,2013-08-20 11:42:00,
2013-08-20 04:43:00,57.6,52.0,30.17,ESE,112,0.0,0.0,81,0.00,,,0.00,WUHU21636XXSP,2013-08-20 11:43:00,
2013-08-20 04:45:00,57.6,52.0,30.17,NE,45,0.0,0.0,81,0.00,,,0.00,WUHU21636XXSP,2013-08-20 11:45:00,
2013-08-20 04:46:00,57.6,52.0,30.17,ESE,112,2.4,2.4,81,0.00,,,0.00,WUHU21636XXSP,2013-08-20 11:46:00,
2013-08-20 04:47:00,57.6,52.0,30.17,ESE,112,2.4,2.4,81,0.00,,,0.00,WUHU21636XXSP,2013-08-20 11:47:00,
2013-08-20 04:48:00,57.6,52.0,30.17,ESE,112,2.4,2.4,81,0.00,,,0.00,WUHU21636XXSP,2013-08-20 11:48:00,
2013-08-20 04:49:00,57.6,52.0,30.17,ESE,112,2.4,2.4,81,0.00,,,0.00,WUHU21636XXSP,2013-08-20 11:49:00,
2013-08-20 04:50:00,57.6,52.0,30.17,NE,45,0.0,2.4,81,0.00,,,0.00,WUHU21636XXSP,2013-08-20 11:50:00,
2013-08-20 04:51:00,57.6,52.0,30.17,NE,45,0.0,2.4,81,0.00,,,0.00,WUHU21636XXSP,2013-08-20 11:51:00,
2013-08-20 04:52:00,57.6,52.0,30.17,NE,45,0.0,2.4,81,0.00,,,0.00,WUHU21636XXSP,2013-08-20 11:52:00,
2013-08-20 04:53:00,57.6,52.0,30.17,NE,45,0.0,2.4,81,0.00,,,0.00,WUHU21636XXSP,2013-08-20 11:53:00,
2013-08-20 04:54:00,57.6,52.0,30.17,ENE,67,0.0,2.4,81,0.00,,,0.00,WUHU21636XXSP,2013-08-20 11:54:00,
2013-08-20 04:55:00,57.6,52.0,30.17,ENE,67,0.0,2.4,81,0.00,,,0.00,WUHU21636XXSP,2013-08-20 11:55:00,
2013-08-20 04:56:00,57.6,52.0,30.17,East,90,0.0,2.4,81,0.00,,,0.00,WUHU21636XXSP,2013-08-20 11:56:00,
2013-08-20 04:58:00,57.6,52.0,30.17,East,90,0.0,0.0,81,0.00,,,0.00,WUHU21636XXSP,2013-08-20 11:58:00,
2013-08-20 04:59:00,57.6,52.0,30.17,East,90,0.0,0.0,81,0.00,,,0.00,WUHU21636XXSP,2013-08-20 11:59:00,
2013-08-20 05:01:00,57.6,52.0,30.17,ESE,112,0.0,0.0,81,0.00,,,0.00,WUHU21636XXSP,2013-08-20 12:01:00,
2013-08-20 05:02:00,57.6,52.0,30.17,ESE,112,0.0,0.0,81,0.00,,,0.00,WUHU21636XXSP,2013-08-20 12:02:00,
2013-08-20 05:03:00,57.4,51.8,30.16,ESE,112,0.0,0.0,81,0.00,,,0.00,WUHU21636XXSP,2013-08-20 12:03:00,
2013-08-20 05:04:00,57.4,51.8,30.16,ESE,112,0.0,0.0,81,0.00,,,0.00,WUHU21636XXSP,2013-08-20 12:04:00,
2013-08-20 05:06:00,57.4,51.8,30.17,ESE,112,0.0,0.0,81,0.00,,,0.00,WUHU21636XXSP,2013-08-20 12:06:00,
2013-08-20 05:07:00,57.4,51.8,30.17,ESE,112,0.0,0.0,81,0.00,,,0.00,WUHU21636XXSP,2013-08-20 12:07:00,
2013-08-20 05:08:00,57.4,51.8,30.17,ESE,112,0.0,0.0,81,0.00,,,0.00,WUHU21636XXSP,2013-08-20 12:08:00,
2013-08-20 05:09:00,57.4,51.8,30.17,ESE,112,0.0,0.0,81,0.00,,,0.00,WUHU21636XXSP,2013-08-20 12:09:00,
2013-08-20 05:11:00,57.4,51.8,30.17,NE,45,0.0,0.0,81,0.00,,,0.00,WUHU21636XXSP,2013-08-20 12:11:00,
2013-08-20 05:12:00,57.4,51.8,30.17,NE,45,0.0,0.0,81,0.00,,,0.00,WUHU21636XXSP,2013-08-20 12:12:00,
2013-08-20 05:14:00,57.4,51.8,30.17,NE,45,0.0,0.0,81,0.00,,,0.00,WUHU21636XXSP,2013-08-20 12:14:00,
2013-08-20 05:16:00,57.2,51.6,30.17,NE,45,0.0,0.0,81,0.00,,,0.00,WUHU21636XXSP,2013-08-20 12:16:00,
2013-08-20 05:17:00,57.2,51.9,30.17,NE,45,0.0,0.0,82,0.00,,,0.00,WUHU21636XXSP,2013-08-20 12:17:00,
2013-08-20 05:19:00,57.2,51.9,30.17,NE,45,0.0,0.0,82,0.00,,,0.00,WUHU21636XXSP,2013-08-20 12:19:00,
2013-08-20 05:20:00,57.2,51.9,30.17,NE,45,0.0,0.0,82,0.00,,,0.00,WUHU21636XXSP,2013-08-20 12:20:00,
2013-08-20 05:21:00,57.2,51.9,30.17,NE,45,0.0,0.0,82,0.00,,,0.00,WUHU21636XXSP,2013-08-20 12:21:00,
2013-08-20 05:22:00,57.0,51.7,30.17,NE,45,0.0,0.0,82,0.00,,,0.00,WUHU21636XXSP,2013-08-20 12:22:00,
2013-08-20 05:24:00,57.0,51.7,30.17,NE,45,0.0,0.0,82,0.00,,,0.00,WUHU21636XXSP,2013-08-20 12:24:00,
2013-08-20 05:25:00,57.0,51.7,30.17,NE,45,0.0,0.0,82,0.00,,,0.00,WUHU21636XXSP,2013-08-20 12:25:00,
2013-08-20 05:26:00,57.0,51.7,30.17,NE,45,0.0,0.0,82,0.00,,,0.00,WUHU21636XXSP,2013-08-20 12:26:00,
2013-08-20 05:28:00,57.0,51.7,30.17,NE,45,0.0,0.0,82,0.00,,,0.00,WUHU21636XXSP,2013-08-20 12:28:00,
2013-08-20 05:30:00,57.0,51.7,30.17,ENE,67,0.0,0.0,82,0.00,,,0.00,WUHU21636XXSP,2013-08-20 12:30:00,
2013-08-20 05:31:00,57.0,51.7,30.17,ENE,67,0.0,0.0,82,0.00,,,0.00,WUHU21636XXSP,2013-08-20 12:31:00,
2013-08-20 05:33:00,57.0,51.7,30.17,ENE,67,0.0,0.0,82,0.00,,,0.00,WUHU21636XXSP,2013-08-20 12:33:00,
2013-08-20 05:35:00,57.0,51.7,30.17,ENE,67,0.0,0.0,82,0.00,,,0.00,WUHU21636XXSP,2013-08-20 12:35:00,
2013-08-20 05:36:00,57.0,51.7,30.17,ENE,67,0.0,0.0,82,0.00,,,0.00,WUHU21636XXSP,2013-08-20 12:36:00,
2013-08-20 05:38:00,57.0,51.7,30.17,ENE,67,0.0,0.0,82,0.00,,,0.00,WUHU21636XXSP,2013-08-20 12:38:00,
2013-08-20 05:40:00,57.0,51.7,30.17,ENE,67,0.0,0.0,82,0.00,,,0.00,WUHU21636XXSP,2013-08-20 12:40:00,
2013-08-20 05:41:00,57.0,51.7,30.17,ENE,67,0.0,0.0,82,0.00,,,0.00,WUHU21636XXSP,2013-08-20 12:41:00,
2013-08-20 05:43:00,57.0,51.7,30.17,ENE,67,0.0,0.0,82,0.00,,,0.00,WUHU21636XXSP,2013-08-20 12:43:00,
2013-08-20 05:45:00,57.0,51.7,30.17,ENE,67,0.0,0.0,82,0.00,,,0.00,WUHU21636XXSP,2013-08-20 12:45:00,
2013-08-20 05:46:00,57.0,51.7,30.17,ENE,67,0.0,0.0,82,0.00,,,0.00,WUHU21636XXSP,2013-08-20 12:46:00,
2013-08-20 05:47:00,57.0,51.7,30.17,ENE,67,0.0,0.0,82,0.00,,,0.00,WUHU21636XXSP,2013-08-20 12:47:00,
2013-08-20 05:48:00,57.0,51.7,30.17,ENE,67,0.0,0.0,82,0.00,,,0.00,WUHU21636XXSP,2013-08-20 12:48:00,
2013-08-20 05:50:00,57.0,51.7,30.17,ENE,67,0.0,0.0,82,0.00,,,0.00,WUHU21636XXSP,2013-08-20 12:50:00,
2013-08-20 05:51:00,57.0,51.7,30.17,ENE,67,0.0,0.0,82,0.00,,,0.00,WUHU21636XXSP,2013-08-20 12:51:00,
2013-08-20 05:52:00,57.0,51.7,30.17,ENE,67,0.0,0.0,82,0.00,,,0.00,WUHU21636XXSP,2013-08-20 12:52:00,
2013-08-20 05:53:00,57.0,51.7,30.17,ENE,67,0.0,0.0,82,0.00,,,0.00,WUHU21636XXSP,2013-08-20 12:53:00,
2013-08-20 05:55:00,57.0,52.0,30.17,ENE,67,0.0,0.0,83,0.00,,,0.00,WUHU21636XXSP,2013-08-20 12:55:00,
2013-08-20 05:56:00,57.0,51.7,30.17,ENE,67,0.0,0.0,82,0.00,,,0.00,WUHU21636XXSP,2013-08-20 12:56:00,
2013-08-20 05:57:00,57.0,51.7,30.17,ENE,67,0.0,0.0,82,0.00,,,0.00,WUHU21636XXSP,2013-08-20 12:57:00,
2013-08-20 05:58:00,57.0,51.7,30.17,ENE,67,0.0,0.0,82,0.00,,,0.00,WUHU21636XXSP,2013-08-20 12:58:00,
2013-08-20 06:00:00,57.0,51.7,30.17,ENE,67,0.0,0.0,82,0.00,,,0.00,WUHU21636XXSP,2013-08-20 13:00:00,
2013-08-20 06:02:00,57.0,52.0,30.17,ENE,67,0.0,0.0,83,0.00,,,0.00,WUHU21636XXSP,2013-08-20 13:02:00,
2013-08-20 06:03:00,57.0,52.0,30.17,ENE,67,0.0,0.0,83,0.00,,,0.00,WUHU21636XXSP,2013-08-20 13:03:00,
2013-08-20 06:05:00,57.0,52.0,30.17,ENE,67,0.0,0.0,83,0.00,,,0.00,WUHU21636XXSP,2013-08-20 13:05:00,
2013-08-20 06:07:00,57.0,52.0,30.17,ENE,67,0.0,0.0,83,0.00,,,0.00,WUHU21636XXSP,2013-08-20 13:07:00,
2013-08-20 06:09:00,57.0,52.0,30.17,ENE,67,0.0,0.0,83,0.00,,,0.00,WUHU21636XXSP,2013-08-20 13:09:00,
2013-08-20 06:10:00,57.0,52.0,30.17,ENE,67,0.0,0.0,83,0.00,,,0.00,WUHU21636XXSP,2013-08-20 13:10:00,
2013-08-20 06:12:00,57.0,52.0,30.17,ENE,67,0.0,0.0,83,0.00,,,0.00,WUHU21636XXSP,2013-08-20 13:12:00,
2013-08-20 06:14:00,57.0,52.0,30.17,ENE,67,0.0,0.0,83,0.00,,,0.00,WUHU21636XXSP,2013-08-20 13:14:00,
2013-08-20 06:15:00,57.0,52.0,30.18,ENE,67,0.0,0.0,83,0.00,,,0.00,WUHU21636XXSP,2013-08-20 13:15:00,
2013-08-20 06:17:00,57.0,52.0,30.18,ENE,67,0.0,0.0,83,0.00,,,0.00,WUHU21636XXSP,2013-08-20 13:17:00,
2013-08-20 06:18:00,57.0,52.0,30.18,ENE,67,0.0,0.0,83,0.00,,,0.00,WUHU21636XXSP,2013-08-20 13:18:00,
2013-08-20 06:19:00,57.0,52.0,30.18,ENE,67,0.0,0.0,83,0.00,,,0.00,WUHU21636XXSP,2013-08-20 13:19:00,
2013-08-20 06:20:00,57.0,52.0,30.18,ENE,67,0.0,0.0,83,0.00,,,0.00,WUHU21636XXSP,2013-08-20 13:20:00,
2013-08-20 06:23:00,57.0,52.0,30.18,ENE,67,0.0,0.0,83,0.00,,,0.00,WUHU21636XXSP,2013-08-20 13:23:00,
2013-08-20 06:24:00,57.0,52.0,30.18,ENE,67,0.0,0.0,83,0.00,,,0.00,WUHU21636XXSP,2013-08-20 13:24:00,
2013-08-20 06:25:00,57.0,52.0,30.18,ENE,67,0.0,0.0,83,0.00,,,0.00,WUHU21636XXSP,2013-08-20 13:25:00,
2013-08-20 06:26:00,57.0,52.0,30.18,ENE,67,0.0,0.0,83,0.00,,,0.00,WUHU21636XXSP,2013-08-20 13:26:00,
2013-08-20 06:28:00,57.0,52.0,30.18,ENE,67,0.0,0.0,83,0.00,,,0.00,WUHU21636XXSP,2013-08-20 13:28:00,
2013-08-20 06:29:00,57.2,52.2,30.18,ENE,67,0.0,0.0,83,0.00,,,0.00,WUHU21636XXSP,2013-08-20 13:29:00,
2013-08-20 06:31:00,57.2,52.2,30.18,ENE,67,0.0,0.0,83,0.00,,,0.00,WUHU21636XXSP,2013-08-20 13:31:00,
2013-08-20 06:33:00,57.2,52.2,30.18,ENE,67,0.0,0.0,83,0.00,,,0.00,WUHU21636XXSP,2013-08-20 13:33:00,
2013-08-20 06:35:00,57.2,52.2,30.18,ENE,67,0.0,0.0,83,0.00,,,0.00,WUHU21636XXSP,2013-08-20 13:35:00,
2013-08-20 06:36:00,57.2,52.2,30.18,ENE,67,0.0,0.0,83,0.00,,,0.00,WUHU21636XXSP,2013-08-20 13:36:00,
2013-08-20 06:38:00,57.0,52.0,30.18,ENE,67,0.0,0.0,83,0.00,,,0.00,WUHU21636XXSP,2013-08-20 13:38:00,
2013-08-20 06:40:00,57.0,52.0,30.18,ENE,67,0.0,0.0,83,0.00,,,0.00,WUHU21636XXSP,2013-08-20 13:40:00,
2013-08-20 06:41:00,57.0,52.0,30.18,ENE,67,0.0,0.0,83,0.00,,,0.00,WUHU21636XXSP,2013-08-20 13:41:00,
2013-08-20 06:43:00,57.0,52.0,30.18,ENE,67,0.0,0.0,83,0.00,,,0.00,WUHU21636XXSP,2013-08-20 13:43:00,
2013-08-20 06:45:00,57.0,52.0,30.18,ENE,67,0.0,0.0,83,0.00,,,0.00,WUHU21636XXSP,2013-08-20 13:45:00,
2013-08-20 06:46:00,57.0,52.0,30.18,ENE,67,0.0,0.0,83,0.00,,,0.00,WUHU21636XXSP,2013-08-20 13:46:00,
2013-08-20 06:48:00,57.0,52.4,30.18,ENE,67,0.0,0.0,85,0.00,,,0.00,WUHU21636XXSP,2013-08-20 13:48:00,
2013-08-20 06:49:00,57.0,52.4,30.18,ENE,67,0.0,0.0,85,0.00,,,0.00,WUHU21636XXSP,2013-08-20 13:49:00,
2013-08-20 06:50:00,57.0,52.4,30.18,ENE,67,0.0,0.0,85,0.00,,,0.00,WUHU21636XXSP,2013-08-20 13:50:00,
2013-08-20 06:51:00,57.0,52.4,30.18,ENE,67,0.0,0.0,85,0.00,,,0.00,WUHU21636XXSP,2013-08-20 13:51:00,
2013-08-20 06:53:00,57.0,52.4,30.17,ENE,67,0.0,0.0,85,0.00,,,0.00,WUHU21636XXSP,2013-08-20 13:53:00,
2013-08-20 06:54:00,57.0,52.4,30.17,ENE,67,0.0,0.0,85,0.00,,,0.00,WUHU21636XXSP,2013-08-20 13:54:00,
2013-08-20 06:55:00,57.0,52.4,30.17,ENE,67,0.0,0.0,85,0.00,,,0.00,WUHU21636XXSP,2013-08-20 13:55:00,
2013-08-20 06:56:00,57.0,52.4,30.17,ENE,67,0.0,0.0,85,0.00,,,0.00,WUHU21636XXSP,2013-08-20 13:56:00,
2013-08-20 06:57:00,57.4,52.8,30.17,ENE,67,0.0,0.0,85,0.00,,,0.00,WUHU21636XXSP,2013-08-20 13:57:00,
2013-08-20 06:58:00,57.4,52.8,30.18,ENE,67,0.0,0.0,85,0.00,,,0.00,WUHU21636XXSP,2013-08-20 13:58:00,
2013-08-20 06:59:00,57.4,52.8,30.18,ENE,67,0.0,0.0,85,0.00,,,0.00,WUHU21636XXSP,2013-08-20 13:59:00,
2013-08-20 07:00:00,57.4,52.8,30.18,ENE,67,0.0,0.0,85,0.00,,,0.00,WUHU21636XXSP,2013-08-20 14:00:00,
2013-08-20 07:01:00,57.2,52.6,30.18,ENE,67,0.0,0.0,85,0.00,,,0.00,WUHU21636XXSP,2013-08-20 14:01:00,
2013-08-20 07:02:00,57.2,52.6,30.18,ENE,67,0.0,0.0,85,0.00,,,0.00,WUHU21636XXSP,2013-08-20 14:02:00,
2013-08-20 07:04:00,57.4,52.8,30.18,ENE,67,0.0,0.0,85,0.00,,,0.00,WUHU21636XXSP,2013-08-20 14:04:00,
2013-08-20 07:05:00,57.2,52.6,30.18,East,90,0.0,0.0,85,0.00,,,0.00,WUHU21636XXSP,2013-08-20 14:05:00,
2013-08-20 07:06:00,57.2,52.6,30.18,East,90,0.0,0.0,85,0.00,,,0.00,WUHU21636XXSP,2013-08-20 14:06:00,
2013-08-20 07:07:00,57.4,52.8,30.18,East,90,0.0,0.0,85,0.00,,,0.00,WUHU21636XXSP,2013-08-20 14:07:00,
2013-08-20 07:09:00,57.4,52.8,30.18,East,90,0.0,0.0,85,0.00,,,0.00,WUHU21636XXSP,2013-08-20 14:09:00,
2013-08-20 07:11:00,57.4,52.8,30.18,ESE,112,0.0,0.0,85,0.00,,,0.00,WUHU21636XXSP,2013-08-20 14:11:00,
2013-08-20 07:12:00,57.4,52.8,30.18,ESE,112,0.0,0.0,85,0.00,,,0.00,WUHU21636XXSP,2013-08-20 14:12:00,
2013-08-20 07:14:00,57.4,52.8,30.18,ESE,112,0.0,0.0,85,0.00,,,0.00,WUHU21636XXSP,2013-08-20 14:14:00,
2013-08-20 07:15:00,57.4,52.8,30.18,ESE,112,0.0,0.0,85,0.00,,,0.00,WUHU21636XXSP,2013-08-20 14:15:00,
2013-08-20 07:16:00,57.4,52.8,30.18,ESE,112,0.0,0.0,85,0.00,,,0.00,WUHU21636XXSP,2013-08-20 14:16:00,
2013-08-20 07:17:00,57.4,52.8,30.18,ESE,112,0.0,0.0,85,0.00,,,0.00,WUHU21636XXSP,2013-08-20 14:17:00,
2013-08-20 07:18:00,57.4,52.8,30.18,ESE,112,0.0,0.0,85,0.00,,,0.00,WUHU21636XXSP,2013-08-20 14:18:00,
2013-08-20 07:19:00,57.4,52.8,30.18,ESE,112,0.0,0.0,85,0.00,,,0.00,WUHU21636XXSP,2013-08-20 14:19:00,
2013-08-20 07:20:00,57.4,52.8,30.18,ESE,112,0.0,0.0,85,0.00,,,0.00,WUHU21636XXSP,2013-08-20 14:20:00,
2013-08-20 07:21:00,57.6,53.0,30.18,ESE,112,0.0,0.0,85,0.00,,,0.00,WUHU21636XXSP,2013-08-20 14:21:00,
2013-08-20 07:22:00,57.6,53.0,30.18,ESE,112,0.0,0.0,85,0.00,,,0.00,WUHU21636XXSP,2013-08-20 14:22:00,
2013-08-20 07:23:00,57.7,53.1,30.18,NNE,22,0.6,0.6,85,0.00,,,0.00,WUHU21636XXSP,2013-08-20 14:23:00,
2013-08-20 07:24:00,57.6,53.0,30.18,NNE,22,0.6,0.6,85,0.00,,,0.00,WUHU21636XXSP,2013-08-20 14:24:00,
2013-08-20 07:26:00,57.7,52.7,30.19,East,90,0.0,0.6,83,0.00,,,0.00,WUHU21636XXSP,2013-08-20 14:26:00,
2013-08-20 07:27:00,57.7,52.7,30.19,East,90,0.0,0.6,83,0.00,,,0.00,WUHU21636XXSP,2013-08-20 14:27:00,
2013-08-20 07:28:00,57.7,52.7,30.19,East,90,0.0,0.6,83,0.00,,,0.00,WUHU21636XXSP,2013-08-20 14:28:00,
2013-08-20 07:29:00,57.7,52.7,30.18,ENE,67,0.0,0.6,83,0.00,,,0.00,WUHU21636XXSP,2013-08-20 14:29:00,
2013-08-20 07:32:00,57.7,52.7,30.19,ESE,112,0.0,0.6,83,0.00,,,0.00,WUHU21636XXSP,2013-08-20 14:32:00,
2013-08-20 07:33:00,57.7,53.1,30.19,ESE,112,0.0,0.6,85,0.00,,,0.00,WUHU21636XXSP,2013-08-20 14:33:00,
2013-08-20 07:34:00,57.7,53.1,30.18,ESE,112,0.0,0.0,85,0.00,,,0.00,WUHU21636XXSP,2013-08-20 14:34:00,
2013-08-20 07:35:00,57.7,53.1,30.18,ESE,112,0.0,0.0,85,0.00,,,0.00,WUHU21636XXSP,2013-08-20 14:35:00,
2013-08-20 07:37:00,57.7,52.7,30.19,ESE,112,0.0,0.0,83,0.00,,,0.00,WUHU21636XXSP,2013-08-20 14:37:00,
2013-08-20 07:38:00,57.7,52.7,30.19,ESE,112,2.2,2.2,83,0.00,,,0.00,WUHU21636XXSP,2013-08-20 14:38:00,
2013-08-20 07:39:00,57.7,52.7,30.19,ESE,112,2.2,2.2,83,0.00,,,0.00,WUHU21636XXSP,2013-08-20 14:39:00,
2013-08-20 07:40:00,57.7,52.7,30.19,ESE,112,2.2,2.2,83,0.00,,,0.00,WUHU21636XXSP,2013-08-20 14:40:00,
2013-08-20 07:42:00,57.7,52.7,30.19,East,90,0.0,2.2,83,0.00,,,0.00,WUHU21636XXSP,2013-08-20 14:42:00,
2013-08-20 07:43:00,57.7,52.7,30.19,East,90,0.0,2.2,83,0.00,,,0.00,WUHU21636XXSP,2013-08-20 14:43:00,
2013-08-20 07:45:00,57.7,52.7,30.19,ENE,67,0.0,2.2,83,0.00,,,0.00,WUHU21636XXSP,2013-08-20 14:45:00,
2013-08-20 07:47:00,57.7,52.7,30.19,East,90,0.0,2.2,83,0.00,,,0.00,WUHU21636XXSP,2013-08-20 14:47:00,
2013-08-20 07:48:00,57.7,52.7,30.19,East,90,0.0,2.2,83,0.00,,,0.00,WUHU21636XXSP,2013-08-20 14:48:00,
2013-08-20 07:50:00,57.7,52.7,30.19,ESE,112,0.0,0.0,83,0.00,,,0.00,WUHU21636XXSP,2013-08-20 14:50:00,
2013-08-20 07:53:00,57.9,52.9,30.19,SE,135,1.5,1.5,83,0.00,,,0.00,WUHU21636XXSP,2013-08-20 14:53:00,
2013-08-20 07:55:00,57.7,52.7,30.19,SE,135,1.5,1.5,83,0.00,,,0.00,WUHU21636XXSP,2013-08-20 14:55:00,
2013-08-20 07:56:00,57.7,52.7,30.19,SE,135,1.5,1.5,83,0.00,,,0.00,WUHU21636XXSP,2013-08-20 14:56:00,
2013-08-20 07:58:00,57.9,52.9,30.19,SE,135,0.0,1.5,83,0.00,,,0.00,WUHU21636XXSP,2013-08-20 14:58:00,
2013-08-20 08:00:00,57.9,52.6,30.19,SE,135,0.0,1.5,82,0.00,,,0.00,WUHU21636XXSP,2013-08-20 15:00:00,
2013-08-20 08:01:00,57.9,52.6,30.19,SE,135,0.0,1.5,82,0.00,,,0.00,WUHU21636XXSP,2013-08-20 15:01:00,
2013-08-20 08:03:00,57.9,52.6,30.19,SE,135,0.0,1.5,82,0.00,,,0.00,WUHU21636XXSP,2013-08-20 15:03:00,
2013-08-20 08:05:00,57.7,52.7,30.19,SE,135,0.0,0.0,83,0.00,,,0.00,WUHU21636XXSP,2013-08-20 15:05:00,
2013-08-20 08:06:00,57.9,52.6,30.19,SE,135,0.0,0.0,82,0.00,,,0.00,WUHU21636XXSP,2013-08-20 15:06:00,
2013-08-20 08:08:00,57.9,52.6,30.19,SE,135,0.0,0.0,82,0.00,,,0.00,WUHU21636XXSP,2013-08-20 15:08:00,
2013-08-20 08:10:00,58.1,52.8,30.19,SE,135,0.0,0.0,82,0.00,,,0.00,WUHU21636XXSP,2013-08-20 15:10:00,
2013-08-20 08:11:00,58.1,52.8,30.19,SE,135,0.0,0.0,82,0.00,,,0.00,WUHU21636XXSP,2013-08-20 15:11:00,
2013-08-20 08:13:00,57.9,52.6,30.19,SE,135,0.0,0.0,82,0.00,,,0.00,WUHU21636XXSP,2013-08-20 15:13:00,
2013-08-20 08:16:00,58.1,52.8,30.19,SE,135,0.0,0.0,82,0.00,,,0.00,WUHU21636XXSP,2013-08-20 15:16:00,
2013-08-20 08:18:00,58.3,52.7,30.19,North,0,0.0,0.0,81,0.00,,,0.00,WUHU21636XXSP,2013-08-20 15:18:00,
2013-08-20 08:19:00,58.3,52.7,30.19,North,0,0.0,0.0,81,0.00,,,0.00,WUHU21636XXSP,2013-08-20 15:19:00,
2013-08-20 08:21:00,58.3,52.7,30.19,North,0,0.0,0.0,81,0.00,,,0.00,WUHU21636XXSP,2013-08-20 15:21:00,
2013-08-20 08:22:00,58.3,52.7,30.19,North,0,0.0,0.0,81,0.00,,,0.00,WUHU21636XXSP,2013-08-20 15:22:00,
2013-08-20 08:23:00,58.6,53.0,30.19,North,0,0.4,0.4,81,0.00,,,0.00,WUHU21636XXSP,2013-08-20 15:23:00,
2013-08-20 08:24:00,58.6,53.0,30.19,North,0,0.4,0.4,81,0.00,,,0.00,WUHU21636XXSP,2013-08-20 15:24:00,
2013-08-20 08:25:00,58.6,53.0,30.19,North,0,0.4,0.4,81,0.00,,,0.00,WUHU21636XXSP,2013-08-20 15:25:00,
2013-08-20 08:26:00,58.6,53.0,30.19,North,0,0.0,0.4,81,0.00,,,0.00,WUHU21636XXSP,2013-08-20 15:26:00,
2013-08-20 08:27:00,58.6,53.0,30.19,North,0,0.0,0.4,81,0.00,,,0.00,WUHU21636XXSP,2013-08-20 15:27:00,
2013-08-20 08:28:00,58.6,52.6,30.19,NE,45,0.0,0.4,80,0.00,,,0.00,WUHU21636XXSP,2013-08-20 15:28:00,
2013-08-20 08:29:00,58.6,53.0,30.19,ESE,112,0.0,0.4,81,0.00,,,0.00,WUHU21636XXSP,2013-08-20 15:29:00,
2013-08-20 08:30:00,58.6,53.0,30.19,ESE,112,0.0,0.4,81,0.00,,,0.00,WUHU21636XXSP,2013-08-20 15:30:00,
2013-08-20 08:31:00,58.6,53.0,30.19,ESE,112,0.0,0.4,81,0.00,,,0.00,WUHU21636XXSP,2013-08-20 15:31:00,
2013-08-20 08:32:00,58.6,53.0,30.19,ESE,112,0.0,0.4,81,0.00,,,0.00,WUHU21636XXSP,2013-08-20 15:32:00,
2013-08-20 08:33:00,58.6,52.6,30.19,NE,45,0.0,0.4,80,0.00,,,0.00,WUHU21636XXSP,2013-08-20 15:33:00,
2013-08-20 08:34:00,58.6,52.6,30.19,NE,45,0.0,0.4,80,0.00,,,0.00,WUHU21636XXSP,2013-08-20 15:34:00,
2013-08-20 08:35:00,58.8,52.8,30.19,NE,45,0.0,0.0,80,0.00,,,0.00,WUHU21636XXSP,2013-08-20 15:35:00,
2013-08-20 08:37:00,58.8,52.8,30.19,NE,45,0.0,0.0,80,0.00,,,0.00,WUHU21636XXSP,2013-08-20 15:37:00,
2013-08-20 08:39:00,59.0,53.0,30.19,NE,45,0.0,0.0,80,0.00,,,0.00,WUHU21636XXSP,2013-08-20 15:39:00,
2013-08-20 08:40:00,58.8,52.8,30.19,ESE,112,0.0,0.0,80,0.00,,,0.00,WUHU21636XXSP,2013-08-20 15:40:00,
2013-08-20 08:42:00,58.8,52.8,30.19,ESE,112,0.0,0.0,80,0.00,,,0.00,WUHU21636XXSP,2013-08-20 15:42:00,
2013-08-20 08:44:00,58.8,52.8,30.19,ESE,112,0.0,0.0,80,0.00,,,0.00,WUHU21636XXSP,2013-08-20 15:44:00,
2013-08-20 08:46:00,59.0,52.7,30.19,NNE,22,0.0,0.0,79,0.00,,,0.00,WUHU21636XXSP,2013-08-20 15:46:00,
2013-08-20 08:47:00,59.0,52.7,30.19,NNE,22,0.0,0.0,79,0.00,,,0.00,WUHU21636XXSP,2013-08-20 15:47:00,
2013-08-20 08:49:00,59.0,52.7,30.19,NNE,22,0.0,0.0,79,0.00,,,0.00,WUHU21636XXSP,2013-08-20 15:49:00,
2013-08-20 08:51:00,59.0,52.7,30.19,North,0,0.0,0.0,79,0.00,,,0.00,WUHU21636XXSP,2013-08-20 15:51:00,
2013-08-20 08:53:00,59.0,52.7,30.19,North,0,0.0,0.0,79,0.00,,,0.00,WUHU21636XXSP,2013-08-20 15:53:00,
2013-08-20 08:54:00,59.0,52.7,30.19,North,0,0.0,0.0,79,0.00,,,0.00,WUHU21636XXSP,2013-08-20 15:54:00,
2013-08-20 08:56:00,59.0,52.7,30.19,NNE,22,0.0,0.0,79,0.00,,,0.00,WUHU21636XXSP,2013-08-20 15:56:00,
2013-08-20 08:58:00,59.0,52.7,30.19,East,90,0.0,0.0,79,0.00,,,0.00,WUHU21636XXSP,2013-08-20 15:58:00,
2013-08-20 08:59:00,59.4,53.1,30.19,ESE,112,0.0,0.0,79,0.00,,,0.00,WUHU21636XXSP,2013-08-20 15:59:00,
2013-08-20 09:00:00,59.4,53.1,30.19,ESE,112,0.0,0.0,79,0.00,,,0.00,WUHU21636XXSP,2013-08-20 16:00:00,
2013-08-20 09:02:00,59.5,53.2,30.19,ESE,112,0.0,0.0,79,0.00,,,0.00,WUHU21636XXSP,2013-08-20 16:02:00,
2013-08-20 09:03:00,59.5,53.2,30.19,ESE,112,0.0,0.0,79,0.00,,,0.00,WUHU21636XXSP,2013-08-20 16:03:00,
2013-08-20 09:04:00,59.7,53.3,30.19,ESE,112,0.0,0.0,79,0.00,,,0.00,WUHU21636XXSP,2013-08-20 16:04:00,
2013-08-20 09:05:00,59.7,53.3,30.19,ESE,112,0.0,0.0,79,0.00,,,0.00,WUHU21636XXSP,2013-08-20 16:05:00,
2013-08-20 09:07:00,59.9,53.2,30.19,ENE,67,0.0,0.0,78,0.00,,,0.00,WUHU21636XXSP,2013-08-20 16:07:00,
2013-08-20 09:08:00,60.1,53.4,30.19,NE,45,0.0,0.0,78,0.00,,,0.00,WUHU21636XXSP,2013-08-20 16:08:00,
2013-08-20 09:09:00,60.1,53.4,30.19,NE,45,0.0,0.0,78,0.00,,,0.00,WUHU21636XXSP,2013-08-20 16:09:00,
2013-08-20 09:10:00,60.1,53.4,30.19,NE,45,0.0,0.0,78,0.00,,,0.00,WUHU21636XXSP,2013-08-20 16:10:00,
2013-08-20 09:13:00,60.4,53.7,30.19,NNE,22,0.0,0.0,78,0.00,,,0.00,WUHU21636XXSP,2013-08-20 16:13:00,
2013-08-20 09:14:00,60.4,53.3,30.19,SE,135,0.0,0.0,77,0.00,,,0.00,WUHU21636XXSP,2013-08-20 16:14:00,
2013-08-20 09:15:00,60.4,53.3,30.19,SE,135,0.0,0.0,77,0.00,,,0.00,WUHU21636XXSP,2013-08-20 16:15:00,
2013-08-20 09:18:00,60.6,53.5,30.19,ESE,112,0.0,0.0,77,0.00,,,0.00,WUHU21636XXSP,2013-08-20 16:18:00,
2013-08-20 09:20:00,61.0,53.9,30.19,ESE,112,0.0,0.0,77,0.00,,,0.00,WUHU21636XXSP,2013-08-20 16:20:00,
2013-08-20 09:21:00,61.2,53.7,30.19,ENE,67,0.0,0.0,76,0.00,,,0.00,WUHU21636XXSP,2013-08-20 16:21:00,
2013-08-20 09:23:00,61.2,53.7,30.19,NNE,22,0.0,0.0,76,0.00,,,0.00,WUHU21636XXSP,2013-08-20 16:23:00,
2013-08-20 09:24:00,61.2,53.7,30.19,NNE,22,0.0,0.0,76,0.00,,,0.00,WUHU21636XXSP,2013-08-20 16:24:00,
2013-08-20 09:25:00,61.3,53.8,30.18,NNE,22,0.0,0.0,76,0.00,,,0.00,WUHU21636XXSP,2013-08-20 16:25:00,
2013-08-20 09:26:00,61.3,53.8,30.18,NNE,22,0.0,0.0,76,0.00,,,0.00,WUHU21636XXSP,2013-08-20 16:26:00,
2013-08-20 09:28:00,61.3,53.5,30.19,NE,45,0.0,0.0,75,0.00,,,0.00,WUHU21636XXSP,2013-08-20 16:28:00,
2013-08-20 09:29:00,61.5,53.7,30.18,NNE,22,0.0,0.0,75,0.00,,,0.00,WUHU21636XXSP,2013-08-20 16:29:00,
2013-08-20 09:31:00,61.5,53.7,30.19,NNE,22,0.0,0.0,75,0.00,,,0.00,WUHU21636XXSP,2013-08-20 16:31:00,
2013-08-20 09:33:00,61.7,53.5,30.18,ESE,112,0.0,0.0,74,0.00,,,0.00,WUHU21636XXSP,2013-08-20 16:33:00,
2013-08-20 09:34:00,61.7,53.5,30.18,SE,135,0.0,0.0,74,0.00,,,0.00,WUHU21636XXSP,2013-08-20 16:34:00,
2013-08-20 09:36:00,61.9,54.1,30.18,SE,135,0.0,0.0,75,0.00,,,0.00,WUHU21636XXSP,2013-08-20 16:36:00,
2013-08-20 09:38:00,62.1,53.9,30.19,ESE,112,0.0,0.0,74,0.00,,,0.00,WUHU21636XXSP,2013-08-20 16:38:00,
2013-08-20 09:39:00,62.1,53.9,30.19,ESE,112,0.0,0.0,74,0.00,,,0.00,WUHU21636XXSP,2013-08-20 16:39:00,
2013-08-20 09:40:00,62.2,54.0,30.19,NNW,337,6.0,6.0,74,0.00,,,0.00,WUHU21636XXSP,2013-08-20 16:40:00,
2013-08-20 09:41:00,62.4,54.2,30.19,North,357,5.3,6.0,74,0.00,,,0.00,WUHU21636XXSP,2013-08-20 16:41:00,
2013-08-20 09:43:00,62.4,53.8,30.19,North,0,1.5,6.0,73,0.00,,,0.00,WUHU21636XXSP,2013-08-20 16:43:00,
2013-08-20 09:44:00,62.4,53.8,30.19,North,0,1.5,6.0,73,0.00,,,0.00,WUHU21636XXSP,2013-08-20 16:44:00,
2013-08-20 09:45:00,62.4,53.8,30.19,North,0,1.5,6.0,73,0.00,,,0.00,WUHU21636XXSP,2013-08-20 16:45:00,
2013-08-20 09:46:00,62.4,53.4,30.19,North,0,1.5,6.0,72,0.00,,,0.00,WUHU21636XXSP,2013-08-20 16:46:00,
2013-08-20 09:49:00,62.8,54.2,30.18,East,90,0.0,6.0,73,0.00,,,0.00,WUHU21636XXSP,2013-08-20 16:49:00,
2013-08-20 09:50:00,63.1,54.1,30.19,North,0,3.3,6.0,72,0.00,,,0.00,WUHU21636XXSP,2013-08-20 16:50:00,
2013-08-20 09:51:00,63.1,54.1,30.19,North,0,3.3,3.3,72,0.00,,,0.00,WUHU21636XXSP,2013-08-20 16:51:00,
2013-08-20 09:54:00,63.1,53.3,30.19,North,351,5.1,7.8,70,0.00,,,0.00,WUHU21636XXSP,2013-08-20 16:54:00,
2013-08-20 09:55:00,63.1,53.3,30.18,North,0,4.2,7.8,70,0.00,,,0.00,WUHU21636XXSP,2013-08-20 16:55:00,
2013-08-20 09:56:00,63.1,53.3,30.18,North,0,3.3,7.8,70,0.00,,,0.00,WUHU21636XXSP,2013-08-20 16:56:00,
2013-08-20 09:57:00,63.1,53.3,30.19,NNW,337,8.9,9.8,70,0.00,,,0.00,WUHU21636XXSP,2013-08-20 16:57:00,
2013-08-20 09:59:00,63.3,53.5,30.19,North,0,5.3,9.8,70,0.00,,,0.00,WUHU21636XXSP,2013-08-20 16:59:00,
2013-08-20 10:00:00,63.3,53.5,30.19,NE,36,2.0,9.8,70,0.00,,,0.00,WUHU21636XXSP,2013-08-20 17:00:00,
2013-08-20 10:01:00,63.3,53.5,30.19,NE,45,7.3,9.8,70,0.00,,,0.00,WUHU21636XXSP,2013-08-20 17:01:00,
2013-08-20 10:02:00,63.3,53.1,30.19,NE,37,3.1,9.8,69,0.00,,,0.00,WUHU21636XXSP,2013-08-20 17:02:00,
2013-08-20 10:04:00,63.7,53.9,30.19,NNE,22,1.7,9.8,70,0.00,,,0.00,WUHU21636XXSP,2013-08-20 17:04:00,
2013-08-20 10:05:00,63.7,53.9,30.19,NNE,22,1.7,9.8,70,0.00,,,0.00,WUHU21636XXSP,2013-08-20 17:05:00,
2013-08-20 10:06:00,63.9,54.1,30.19,North,0,3.1,9.8,70,0.00,,,0.00,WUHU21636XXSP,2013-08-20 17:06:00,
2013-08-20 10:07:00,63.9,54.1,30.19,North,0,3.1,9.6,70,0.00,,,0.00,WUHU21636XXSP,2013-08-20 17:07:00,
2013-08-20 10:08:00,64.0,53.8,30.19,NNE,22,3.5,7.8,69,0.00,,,0.00,WUHU21636XXSP,2013-08-20 17:08:00,
2013-08-20 10:09:00,64.0,53.8,30.19,NNE,22,3.5,7.8,69,0.00,,,0.00,WUHU21636XXSP,2013-08-20 17:09:00,
2013-08-20 10:10:00,64.2,53.2,30.19,NNE,22,6.0,7.8,67,0.00,,,0.00,WUHU21636XXSP,2013-08-20 17:10:00,
2013-08-20 10:11:00,64.2,53.2,30.19,NNE,26,3.6,7.3,67,0.00,,,0.00,WUHU21636XXSP,2013-08-20 17:11:00,
2013-08-20 10:12:00,64.4,53.3,30.19,NNE,22,4.4,7.1,67,0.00,,,0.00,WUHU21636XXSP,2013-08-20 17:12:00,
2013-08-20 10:13:00,64.4,53.3,30.19,NNE,22,4.4,7.1,67,0.00,,,0.00,WUHU21636XXSP,2013-08-20 17:13:00,
2013-08-20 10:14:00,64.4,53.3,30.19,NNE,22,4.4,7.1,67,0.00,,,0.00,WUHU21636XXSP,2013-08-20 17:14:00,
2013-08-20 10:15:00,64.6,54.0,30.19,NNE,22,4.4,7.1,68,0.00,,,0.00,WUHU21636XXSP,2013-08-20 17:15:00,
2013-08-20 10:16:00,64.6,54.0,30.19,NNE,22,4.4,7.1,68,0.00,,,0.00,WUHU21636XXSP,2013-08-20 17:16:00,
2013-08-20 10:17:00,64.9,53.8,30.19,North,0,6.9,11.8,67,0.00,,,0.00,WUHU21636XXSP,2013-08-20 17:17:00,
2013-08-20 10:18:00,64.9,53.8,30.19,North,0,6.0,11.8,67,0.00,,,0.00,WUHU21636XXSP,2013-08-20 17:18:00,
2013-08-20 10:19:00,64.9,53.8,30.19,North,0,2.6,11.8,67,0.00,,,0.00,WUHU21636XXSP,2013-08-20 17:19:00,
2013-08-20 10:20:00,65.1,54.0,30.19,North,0,6.0,11.8,67,0.00,,,0.00,WUHU21636XXSP,2013-08-20 17:20:00,
2013-08-20 10:21:00,65.3,53.8,30.19,NNW,337,5.3,11.8,66,0.00,,,0.00,WUHU21636XXSP,2013-08-20 17:21:00,
2013-08-20 10:22:00,65.3,53.4,30.19,NNW,348,5.5,11.8,65,0.00,,,0.00,WUHU21636XXSP,2013-08-20 17:22:00,
2013-08-20 10:23:00,65.3,53.8,30.19,North,352,4.8,11.8,66,0.00,,,0.00,WUHU21636XXSP,2013-08-20 17:23:00,
2013-08-20 10:25:00,65.3,53.8,30.19,ESE,112,0.2,11.8,66,0.00,,,0.00,WUHU21636XXSP,2013-08-20 17:25:00,
2013-08-20 10:26:00,65.5,53.5,30.19,SE,135,3.3,11.8,65,0.00,,,0.00,WUHU21636XXSP,2013-08-20 17:26:00,
2013-08-20 10:28:00,65.8,53.8,30.19,NNW,337,4.6,10.0,65,0.00,,,0.00,WUHU21636XXSP,2013-08-20 17:28:00,
2013-08-20 10:30:00,65.8,53.4,30.19,NNW,344,4.0,10.0,64,0.00,,,0.00,WUHU21636XXSP,2013-08-20 17:30:00,
2013-08-20 10:31:00,65.8,53.4,30.19,NNE,22,2.4,7.8,64,0.00,,,0.00,WUHU21636XXSP,2013-08-20 17:31:00,
2013-08-20 10:33:00,65.8,53.4,30.19,NNE,22,4.6,4.6,64,0.00,,,0.00,WUHU21636XXSP,2013-08-20 17:33:00,
2013-08-20 10:35:00,65.8,53.8,30.19,NNE,22,4.6,4.6,65,0.00,,,0.00,WUHU21636XXSP,2013-08-20 17:35:00,
2013-08-20 10:36:00,66.0,53.6,30.19,NE,45,1.1,4.6,64,0.00,,,0.00,WUHU21636XXSP,2013-08-20 17:36:00,
2013-08-20 10:38:00,66.0,53.1,30.19,NE,37,1.0,4.6,63,0.00,,,0.00,WUHU21636XXSP,2013-08-20 17:38:00,
2013-08-20 10:40:00,66.0,53.6,30.19,North,0,5.8,7.6,64,0.00,,,0.00,WUHU21636XXSP,2013-08-20 17:40:00,
2013-08-20 10:41:00,66.0,53.6,30.19,NNE,22,3.5,7.6,64,0.00,,,0.00,WUHU21636XXSP,2013-08-20 17:41:00,
2013-08-20 10:43:00,66.2,53.8,30.19,NNE,22,2.7,7.6,64,0.00,,,0.00,WUHU21636XXSP,2013-08-20 17:43:00,
2013-08-20 10:45:00,66.4,54.0,30.19,NNW,337,5.8,7.6,64,0.00,,,0.00,WUHU21636XXSP,2013-08-20 17:45:00,
2013-08-20 10:46:00,66.4,54.0,30.19,North,0,4.4,9.8,64,0.00,,,0.00,WUHU21636XXSP,2013-08-20 17:46:00,
2013-08-20 10:47:00,66.6,53.7,30.19,NNE,12,5.4,11.6,63,0.00,,,0.00,WUHU21636XXSP,2013-08-20 17:47:00,
2013-08-20 10:48:00,66.6,53.7,30.19,NNE,22,2.6,11.6,63,0.00,,,0.00,WUHU21636XXSP,2013-08-20 17:48:00,
2013-08-20 10:50:00,66.6,54.2,30.19,NW,315,2.6,11.6,64,0.00,,,0.00,WUHU21636XXSP,2013-08-20 17:50:00,
2013-08-20 10:51:00,66.6,54.2,30.19,NW,315,2.6,11.6,64,0.00,,,0.00,WUHU21636XXSP,2013-08-20 17:51:00,
2013-08-20 10:52:00,66.7,54.3,30.19,North,0,7.3,11.6,64,0.00,,,0.00,WUHU21636XXSP,2013-08-20 17:52:00,
2013-08-20 10:53:00,66.7,53.8,30.19,North,0,5.5,14.3,63,0.00,,,0.00,WUHU21636XXSP,2013-08-20 17:53:00,
2013-08-20 10:55:00,66.7,53.8,30.19,ESE,112,2.4,14.3,63,0.00,,,0.00,WUHU21636XXSP,2013-08-20 17:55:00,
2013-08-20 10:56:00,66.7,53.8,30.19,ESE,112,2.4,14.3,63,0.00,,,0.00,WUHU21636XXSP,2013-08-20 17:56:00,
2013-08-20 10:57:00,66.9,54.0,30.19,East,98,1.2,14.3,63,0.00,,,0.00,WUHU21636XXSP,2013-08-20 17:57:00,
2013-08-20 10:59:00,66.7,53.8,30.19,NNW,337,2.2,14.3,63,0.00,,,0.00,WUHU21636XXSP,2013-08-20 17:59:00,
2013-08-20 11:01:00,66.9,54.4,30.19,NNW,337,2.2,14.3,64,0.00,,,0.00,WUHU21636XXSP,2013-08-20 18:01:00,
2013-08-20 11:02:00,66.9,54.4,30.19,NNE,22,0.0,14.3,64,0.00,,,0.00,WUHU21636XXSP,2013-08-20 18:02:00,
2013-08-20 11:04:00,66.9,54.0,30.19,North,3,6.5,11.1,63,0.00,,,0.00,WUHU21636XXSP,2013-08-20 18:04:00,
2013-08-20 11:06:00,66.7,53.8,30.19,NNW,337,6.2,11.1,63,0.00,,,0.00,WUHU21636XXSP,2013-08-20 18:06:00,
2013-08-20 11:07:00,66.9,54.0,30.19,North,0,9.8,13.6,63,0.00,,,0.00,WUHU21636XXSP,2013-08-20 18:07:00,
2013-08-20 11:09:00,66.7,53.8,30.19,North,358,9.2,13.6,63,0.00,,,0.00,WUHU21636XXSP,2013-08-20 18:09:00,
2013-08-20 11:11:00,66.7,54.3,30.19,North,2,4.2,13.6,64,0.00,,,0.00,WUHU21636XXSP,2013-08-20 18:11:00,
2013-08-20 11:12:00,66.7,54.3,30.18,NE,41,2.5,13.6,64,0.00,,,0.00,WUHU21636XXSP,2013-08-20 18:12:00,
2013-08-20 11:14:00,66.9,54.4,30.18,North,0,0.8,13.6,64,0.00,,,0.00,WUHU21636XXSP,2013-08-20 18:14:00,
2013-08-20 11:16:00,67.1,54.6,30.18,NNE,22,4.9,13.6,64,0.00,,,0.00,WUHU21636XXSP,2013-08-20 18:16:00,
2013-08-20 11:17:00,67.1,54.6,30.18,NNE,22,4.9,12.5,64,0.00,,,0.00,WUHU21636XXSP,2013-08-20 18:17:00,
2013-08-20 11:21:00,67.5,54.6,30.18,NNW,345,4.3,13.6,63,0.00,,,0.00,WUHU21636XXSP,2013-08-20 18:21:00,
2013-08-20 11:22:00,67.5,54.6,30.18,NNE,22,4.0,13.6,63,0.00,,,0.00,WUHU21636XXSP,2013-08-20 18:22:00,
2013-08-20 11:26:00,67.6,54.7,30.18,North,4,3.6,13.6,63,0.00,,,0.00,WUHU21636XXSP,2013-08-20 18:26:00,
2013-08-20 11:27:00,67.8,54.4,30.18,North,3,3.4,13.6,62,0.00,,,0.00,WUHU21636XXSP,2013-08-20 18:27:00,
2013-08-20 11:31:00,68.0,54.6,30.18,ENE,67,2.0,4.0,62,0.00,,,0.00,WUHU21636XXSP,2013-08-20 18:31:00,
2013-08-20 11:32:00,68.0,54.6,30.18,ENE,67,2.0,4.0,62,0.00,,,0.00,WUHU21636XXSP,2013-08-20 18:32:00,
2013-08-20 11:33:00,68.0,54.6,30.18,East,90,0.0,4.0,62,0.00,,,0.00,WUHU21636XXSP,2013-08-20 18:33:00,
2013-08-20 11:36:00,68.4,54.5,30.19,East,80,2.4,8.9,61,0.00,,,0.00,WUHU21636XXSP,2013-08-20 18:36:00,
2013-08-20 11:37:00,68.5,54.6,30.19,NNE,22,2.6,8.9,61,0.00,,,0.00,WUHU21636XXSP,2013-08-20 18:37:00,
2013-08-20 11:38:00,68.5,54.6,30.19,NNE,22,2.6,8.9,61,0.00,,,0.00,WUHU21636XXSP,2013-08-20 18:38:00,
2013-08-20 11:41:00,68.7,54.8,30.19,NNW,348,4.1,8.9,61,0.00,,,0.00,WUHU21636XXSP,2013-08-20 18:41:00,
2013-08-20 11:42:00,68.7,54.8,30.19,North,354,3.7,8.9,61,0.00,,,0.00,WUHU21636XXSP,2013-08-20 18:42:00,
2013-08-20 11:43:00,68.9,54.5,30.18,NNE,22,5.3,8.9,60,0.00,,,0.00,WUHU21636XXSP,2013-08-20 18:43:00,
2013-08-20 11:46:00,68.7,54.3,30.18,ESE,112,3.1,8.0,60,0.00,,,0.00,WUHU21636XXSP,2013-08-20 18:46:00,
2013-08-20 11:47:00,68.7,54.3,30.19,ESE,112,3.1,8.0,60,0.00,,,0.00,WUHU21636XXSP,2013-08-20 18:47:00,
2013-08-20 11:48:00,68.9,54.5,30.18,NE,45,3.1,8.0,60,0.00,,,0.00,WUHU21636XXSP,2013-08-20 18:48:00,
2013-08-20 11:51:00,68.7,54.8,30.19,NNE,31,2.0,6.7,61,0.00,,,0.00,WUHU21636XXSP,2013-08-20 18:51:00,
2013-08-20 11:52:00,68.7,54.3,30.18,NNE,22,1.5,6.7,60,0.00,,,0.00,WUHU21636XXSP,2013-08-20 18:52:00,
2013-08-20 11:53:00,68.7,54.3,30.18,NNE,22,1.1,6.7,60,0.00,,,0.00,WUHU21636XXSP,2013-08-20 18:53:00,
2013-08-20 11:57:00,69.1,54.7,30.18,North,358,11.6,13.6,60,0.00,,,0.00,WUHU21636XXSP,2013-08-20 18:57:00,
2013-08-20 11:58:00,69.1,55.2,30.18,North,0,9.3,13.6,61,0.00,,,0.00,WUHU21636XXSP,2013-08-20 18:58:00,
2013-08-20 12:02:00,69.6,55.2,30.18,SE,135,4.4,13.6,60,0.00,,,0.00,WUHU21636XXSP,2013-08-20 19:02:00,
2013-08-20 12:03:00,69.6,55.2,30.18,NNE,30,4.0,13.6,60,0.00,,,0.00,WUHU21636XXSP,2013-08-20 19:03:00,
2013-08-20 12:07:00,69.6,54.7,30.18,SE,135,0.2,8.9,59,0.00,,,0.00,WUHU21636XXSP,2013-08-20 19:07:00,
2013-08-20 12:08:00,69.6,54.7,30.18,SE,135,0.2,7.8,59,0.00,,,0.00,WUHU21636XXSP,2013-08-20 19:08:00,
2013-08-20 12:12:00,70.0,55.0,30.18,ENE,67,5.8,9.3,59,0.00,,,0.00,WUHU21636XXSP,2013-08-20 19:12:00,
2013-08-20 12:13:00,69.8,54.9,30.18,NNE,18,4.7,9.3,59,0.00,,,0.00,WUHU21636XXSP,2013-08-20 19:13:00,
2013-08-20 12:14:00,69.8,54.9,30.18,North,11,4.7,9.3,59,0.00,,,0.00,WUHU21636XXSP,2013-08-20 19:14:00,
2013-08-20 12:17:00,70.0,55.0,30.18,SSE,157,1.7,9.3,59,0.00,,,0.00,WUHU21636XXSP,2013-08-20 19:17:00,
2013-08-20 12:18:00,70.0,55.0,30.18,SSE,157,1.7,9.3,59,0.00,,,0.00,WUHU21636XXSP,2013-08-20 19:18:00,
2013-08-20 12:19:00,70.0,55.0,30.18,SSE,157,1.7,9.3,59,0.00,,,0.00,WUHU21636XXSP,2013-08-20 19:19:00,
2013-08-20 12:23:00,69.6,54.7,30.18,NNW,337,4.9,6.4,59,0.00,,,0.00,WUHU21636XXSP,2013-08-20 19:23:00,
2013-08-20 12:24:00,69.6,54.7,30.18,NNW,337,4.9,6.4,59,0.00,,,0.00,WUHU21636XXSP,2013-08-20 19:24:00,
2013-08-20 12:28:00,69.6,54.7,30.17,North,357,6.9,12.5,59,0.00,,,0.00,WUHU21636XXSP,2013-08-20 19:28:00,
2013-08-20 12:29:00,69.6,54.2,30.17,North,352,6.6,13.6,58,0.00,,,0.00,WUHU21636XXSP,2013-08-20 19:29:00,
2013-08-20 12:33:00,69.4,54.5,30.17,NE,34,2.5,13.6,59,0.00,,,0.00,WUHU21636XXSP,2013-08-20 19:33:00,
2013-08-20 12:34:00,69.4,54.5,30.17,NE,36,1.3,13.6,59,0.00,,,0.00,WUHU21636XXSP,2013-08-20 19:34:00,
2013-08-20 12:38:00,70.0,55.5,30.17,SSE,157,2.2,8.0,60,0.00,,,0.00,WUHU21636XXSP,2013-08-20 19:38:00,
2013-08-20 12:39:00,70.0,55.5,30.17,SSE,157,2.2,7.1,60,0.00,,,0.00,WUHU21636XXSP,2013-08-20 19:39:00,
2013-08-20 12:40:00,70.0,55.0,30.17,ESE,112,3.1,7.1,59,0.00,,,0.00,WUHU21636XXSP,2013-08-20 19:40:00,
2013-08-20 12:43:00,70.0,55.5,30.17,NNE,22,2.9,3.1,60,0.00,,,0.00,WUHU21636XXSP,2013-08-20 19:43:00,
2013-08-20 12:44:00,70.0,55.5,30.17,NNE,22,2.9,3.1,60,0.00,,,0.00,WUHU21636XXSP,2013-08-20 19:44:00,
2013-08-20 12:45:00,70.0,55.5,30.17,NNE,22,2.9,3.1,60,0.00,,,0.00,WUHU21636XXSP,2013-08-20 19:45:00,
2013-08-20 12:49:00,70.2,55.7,30.17,North,0,2.2,17.4,60,0.00,,,0.00,WUHU21636XXSP,2013-08-20 19:49:00,
2013-08-20 12:50:00,70.0,55.0,30.17,North,0,9.3,17.4,59,0.00,,,0.00,WUHU21636XXSP,2013-08-20 19:50:00,
2013-08-20 12:54:00,69.6,55.2,30.17,NNW,337,7.1,17.4,60,0.00,,,0.00,WUHU21636XXSP,2013-08-20 19:54:00,
2013-08-20 12:55:00,69.6,55.2,30.17,North,351,4.9,17.4,60,0.00,,,0.00,WUHU21636XXSP,2013-08-20 19:55:00,
2013-08-20 12:59:00,69.6,54.7,30.17,North,354,7.0,20.5,59,0.00,,,0.00,WUHU21636XXSP,2013-08-20 19:59:00,
2013-08-20 13:00:00,69.6,54.7,30.17,NNW,347,4.9,20.5,59,0.00,,,0.00,WUHU21636XXSP,2013-08-20 20:00:00,
2013-08-20 13:01:00,69.6,54.7,30.17,North,2,2.4,20.5,59,0.00,,,0.00,WUHU21636XXSP,2013-08-20 20:01:00,
2013-08-20 13:04:00,69.8,54.9,30.17,NNE,22,13.1,20.5,59,0.00,,,0.00,WUHU21636XXSP,2013-08-20 20:04:00,
2013-08-20 13:05:00,70.0,55.0,30.17,NNE,25,8.6,15.2,59,0.00,,,0.00,WUHU21636XXSP,2013-08-20 20:05:00,
2013-08-20 13:06:00,70.0,55.0,30.17,NNE,31,7.6,14.5,59,0.00,,,0.00,WUHU21636XXSP,2013-08-20 20:06:00,
2013-08-20 13:09:00,70.2,55.2,30.17,ENE,62,5.7,14.5,59,0.00,,,0.00,WUHU21636XXSP,2013-08-20 20:09:00,
2013-08-20 13:10:00,70.5,55.0,30.17,ENE,78,4.2,14.5,58,0.00,,,0.00,WUHU21636XXSP,2013-08-20 20:10:00,
2013-08-20 13:11:00,70.5,54.5,30.17,North,0,4.0,14.5,57,0.00,,,0.00,WUHU21636XXSP,2013-08-20 20:11:00,
2013-08-20 13:14:00,70.5,54.0,30.17,NNE,22,1.7,13.4,56,0.00,,,0.00,WUHU21636XXSP,2013-08-20 20:14:00,
2013-08-20 13:15:00,70.5,54.0,30.17,North,0,16.1,17.6,56,0.00,,,0.00,WUHU21636XXSP,2013-08-20 20:15:00,
2013-08-20 13:16:00,70.5,54.0,30.17,North,0,12.0,17.6,56,0.00,,,0.00,WUHU21636XXSP,2013-08-20 20:16:00,
2013-08-20 13:19:00,70.3,54.3,30.17,NNW,348,1.8,17.6,57,0.00,,,0.00,WUHU21636XXSP,2013-08-20 20:19:00,
2013-08-20 13:20:00,70.3,54.3,30.17,NNE,22,2.4,17.6,57,0.00,,,0.00,WUHU21636XXSP,2013-08-20 20:20:00,
2013-08-20 13:21:00,70.3,54.3,30.17,NNE,22,2.4,17.6,57,0.00,,,0.00,WUHU21636XXSP,2013-08-20 20:21:00,
2013-08-20 13:24:00,71.2,54.1,30.17,NNE,22,4.8,17.6,55,0.00,,,0.00,WUHU21636XXSP,2013-08-20 20:24:00,
2013-08-20 13:25:00,71.2,54.1,30.17,NNE,33,3.8,17.6,55,0.00,,,0.00,WUHU21636XXSP,2013-08-20 20:25:00,
2013-08-20 13:26:00,71.2,54.1,30.17,NE,40,3.4,16.5,55,0.00,,,0.00,WUHU21636XXSP,2013-08-20 20:26:00,
2013-08-20 13:29:00,71.2,54.1,30.17,North,0,4.2,4.9,55,0.00,,,0.00,WUHU21636XXSP,2013-08-20 20:29:00,
2013-08-20 13:30:00,71.2,54.1,30.17,North,0,4.2,4.9,55,0.00,,,0.00,WUHU21636XXSP,2013-08-20 20:30:00,
2013-08-20 13:31:00,71.2,54.1,30.17,North,0,4.2,4.9,55,0.00,,,0.00,WUHU21636XXSP,2013-08-20 20:31:00,
2013-08-20 13:34:00,70.9,54.4,30.17,North,352,6.5,11.1,56,0.00,,,0.00,WUHU21636XXSP,2013-08-20 20:34:00,
2013-08-20 13:35:00,70.9,54.4,30.17,North,358,2.2,11.1,56,0.00,,,0.00,WUHU21636XXSP,2013-08-20 20:35:00,
2013-08-20 13:36:00,70.9,54.4,30.17,North,351,1.5,11.1,56,0.00,,,0.00,WUHU21636XXSP,2013-08-20 20:36:00,
2013-08-20 13:40:00,71.2,54.7,30.16,NNE,27,1.8,11.1,56,0.00,,,0.00,WUHU21636XXSP,2013-08-20 20:40:00,
2013-08-20 13:41:00,71.2,54.7,30.16,NE,45,0.6,11.1,56,0.00,,,0.00,WUHU21636XXSP,2013-08-20 20:41:00,
2013-08-20 13:42:00,71.2,54.1,30.16,North,0,1.7,11.1,55,0.00,,,0.00,WUHU21636XXSP,2013-08-20 20:42:00,
2013-08-20 13:45:00,71.2,53.6,30.16,North,354,9.5,15.6,54,0.00,,,0.00,WUHU21636XXSP,2013-08-20 20:45:00,
2013-08-20 13:46:00,71.2,53.6,30.16,North,4,6.0,15.6,54,0.00,,,0.00,WUHU21636XXSP,2013-08-20 20:46:00,
2013-08-20 13:47:00,71.2,53.6,30.16,NE,39,4.2,15.6,54,0.00,,,0.00,WUHU21636XXSP,2013-08-20 20:47:00,
2013-08-20 13:50:00,70.9,53.3,30.16,North,354,5.3,15.6,54,0.00,,,0.00,WUHU21636XXSP,2013-08-20 20:50:00,
2013-08-20 13:51:00,70.9,53.3,30.17,North,353,5.9,15.6,54,0.00,,,0.00,WUHU21636XXSP,2013-08-20 20:51:00,
2013-08-20 13:52:00,70.9,53.3,30.17,NNW,337,6.2,15.6,54,0.00,,,0.00,WUHU21636XXSP,2013-08-20 20:52:00,
2013-08-20 13:53:00,70.7,53.1,30.17,NNW,348,5.5,15.6,54,0.00,,,0.00,WUHU21636XXSP,2013-08-20 20:53:00,
2013-08-20 13:55:00,70.9,53.9,30.16,NNE,22,9.6,14.0,55,0.00,,,0.00,WUHU21636XXSP,2013-08-20 20:55:00,
2013-08-20 13:56:00,70.9,53.9,30.17,NNE,20,5.3,14.0,55,0.00,,,0.00,WUHU21636XXSP,2013-08-20 20:56:00,
2013-08-20 13:57:00,70.9,53.9,30.17,NNE,16,7.0,14.0,55,0.00,,,0.00,WUHU21636XXSP,2013-08-20 20:57:00,
2013-08-20 13:59:00,71.1,54.0,30.17,NNW,337,6.9,14.0,55,0.00,,,0.00,WUHU21636XXSP,2013-08-20 20:59:00,
2013-08-20 14:01:00,71.1,54.0,30.17,NNE,27,3.8,10.2,55,0.00,,,0.00,WUHU21636XXSP,2013-08-20 21:01:00,
2013-08-20 14:02:00,71.1,54.0,30.17,ENE,67,3.1,10.0,55,0.00,,,0.00,WUHU21636XXSP,2013-08-20 21:02:00,
2013-08-20 14:04:00,71.2,54.1,30.16,NNE,22,4.4,10.0,55,0.00,,,0.00,WUHU21636XXSP,2013-08-20 21:04:00,
2013-08-20 14:06:00,71.2,54.1,30.16,NNE,22,4.4,9.8,55,0.00,,,0.00,WUHU21636XXSP,2013-08-20 21:06:00,
2013-08-20 14:07:00,71.2,53.6,30.17,NNE,32,5.9,10.9,54,0.00,,,0.00,WUHU21636XXSP,2013-08-20 21:07:00,
2013-08-20 14:09:00,71.2,53.6,30.16,NE,37,4.0,10.9,54,0.00,,,0.00,WUHU21636XXSP,2013-08-20 21:09:00,
2013-08-20 14:11:00,71.2,53.6,30.17,NNE,30,2.7,10.9,54,0.00,,,0.00,WUHU21636XXSP,2013-08-20 21:11:00,
2013-08-20 14:12:00,71.2,53.6,30.17,North,0,1.7,10.9,54,0.00,,,0.00,WUHU21636XXSP,2013-08-20 21:12:00,
2013-08-20 14:13:00,71.4,54.3,30.17,NNE,22,4.9,10.9,55,0.00,,,0.00,WUHU21636XXSP,2013-08-20 21:13:00,
2013-08-20 14:15:00,71.6,54.0,30.16,North,0,6.2,10.9,54,0.00,,,0.00,WUHU21636XXSP,2013-08-20 21:15:00,
2013-08-20 14:16:00,71.8,54.2,30.16,NNE,19,3.6,10.9,54,0.00,,,0.00,WUHU21636XXSP,2013-08-20 21:16:00,
2013-08-20 14:17:00,71.4,53.8,30.16,NNE,22,3.1,7.8,54,0.00,,,0.00,WUHU21636XXSP,2013-08-20 21:17:00,
2013-08-20 14:20:00,71.6,54.0,30.16,North,0,3.3,7.1,54,0.00,,,0.00,WUHU21636XXSP,2013-08-20 21:20:00,
2013-08-20 14:21:00,71.6,54.0,30.16,North,0,3.3,7.1,54,0.00,,,0.00,WUHU21636XXSP,2013-08-20 21:21:00,
2013-08-20 14:22:00,71.6,54.0,30.16,NNE,22,4.2,7.1,54,0.00,,,0.00,WUHU21636XXSP,2013-08-20 21:22:00,
2013-08-20 14:23:00,71.6,54.0,30.16,NNE,22,4.2,7.1,54,0.00,,,0.00,WUHU21636XXSP,2013-08-20 21:23:00,
2013-08-20 14:25:00,71.4,53.8,30.16,North,1,1.4,4.2,54,0.00,,,0.00,WUHU21636XXSP,2013-08-20 21:25:00,
2013-08-20 14:26:00,71.4,53.8,30.16,NE,45,6.9,11.6,54,0.00,,,0.00,WUHU21636XXSP,2013-08-20 21:26:00,
2013-08-20 14:27:00,71.4,53.8,30.16,NNE,13,5.1,11.6,54,0.00,,,0.00,WUHU21636XXSP,2013-08-20 21:27:00,
2013-08-20 14:28:00,71.4,53.8,30.15,NNE,27,4.8,11.6,54,0.00,,,0.00,WUHU21636XXSP,2013-08-20 21:28:00,
2013-08-20 14:30:00,71.8,53.6,30.16,NE,45,6.4,11.6,53,0.00,,,0.00,WUHU21636XXSP,2013-08-20 21:30:00,
2013-08-20 14:32:00,71.8,53.6,30.16,ENE,58,4.8,11.6,53,0.00,,,0.00,WUHU21636XXSP,2013-08-20 21:32:00,
2013-08-20 14:33:00,71.8,53.6,30.15,SE,144,3.5,11.6,53,0.00,,,0.00,WUHU21636XXSP,2013-08-20 21:33:00,
2013-08-20 14:35:00,72.1,54.4,30.16,NE,54,4.0,11.6,54,0.00,,,0.00,WUHU21636XXSP,2013-08-20 21:35:00,
2013-08-20 14:37:00,72.3,54.1,30.16,North,358,2.1,11.1,53,0.00,,,0.00,WUHU21636XXSP,2013-08-20 21:37:00,
2013-08-20 14:38:00,72.3,54.1,30.15,North,0,8.5,11.1,53,0.00,,,0.00,WUHU21636XXSP,2013-08-20 21:38:00,
2013-08-20 14:39:00,72.3,53.5,30.15,North,0,9.1,12.0,52,0.00,,,0.00,WUHU21636XXSP,2013-08-20 21:39:00,
2013-08-20 14:40:00,72.3,53.5,30.15,North,7,6.5,12.0,52,0.00,,,0.00,WUHU21636XXSP,2013-08-20 21:40:00,
2013-08-20 14:42:00,72.3,53.5,30.15,NNE,27,4.9,12.0,52,0.00,,,0.00,WUHU21636XXSP,2013-08-20 21:42:00,
2013-08-20 14:43:00,72.1,53.3,30.15,NNE,22,3.0,12.0,52,0.00,,,0.00,WUHU21636XXSP,2013-08-20 21:43:00,
2013-08-20 14:44:00,72.1,53.3,30.15,NNE,22,2.8,12.0,52,0.00,,,0.00,WUHU21636XXSP,2013-08-20 21:44:00,
2013-08-20 14:45:00,72.3,53.5,30.16,SE,135,4.9,12.0,52,0.00,,,0.00,WUHU21636XXSP,2013-08-20 21:45:00,
2013-08-20 14:47:00,72.3,53.5,30.15,SE,134,4.9,12.0,52,0.00,,,0.00,WUHU21636XXSP,2013-08-20 21:47:00,
2013-08-20 14:49:00,72.3,53.5,30.15,ESE,112,4.4,10.7,52,0.00,,,0.00,WUHU21636XXSP,2013-08-20 21:49:00,
2013-08-20 14:50:00,72.3,53.5,30.15,NNE,18,3.9,10.7,52,0.00,,,0.00,WUHU21636XXSP,2013-08-20 21:50:00,
2013-08-20 14:52:00,72.3,53.5,30.15,North,0,3.8,5.3,52,0.00,,,0.00,WUHU21636XXSP,2013-08-20 21:52:00,
2013-08-20 14:54:00,72.3,53.5,30.15,NE,45,9.8,10.5,52,0.00,,,0.00,WUHU21636XXSP,2013-08-20 21:54:00,
2013-08-20 14:55:00,72.3,53.5,30.15,NE,50,6.9,10.5,52,0.00,,,0.00,WUHU21636XXSP,2013-08-20 21:55:00,
2013-08-20 14:57:00,72.1,53.3,30.15,NNE,20,7.4,12.7,52,0.00,,,0.00,WUHU21636XXSP,2013-08-20 21:57:00,
2013-08-20 14:58:00,72.1,53.3,30.15,NNE,15,6.9,12.7,52,0.00,,,0.00,WUHU21636XXSP,2013-08-20 21:58:00,
2013-08-20 14:59:00,72.1,53.3,30.15,North,0,5.1,12.7,52,0.00,,,0.00,WUHU21636XXSP,2013-08-20 21:59:00,
2013-08-20 15:00:00,72.0,53.2,30.15,NE,34,3.4,12.7,52,0.00,,,0.00,WUHU21636XXSP,2013-08-20 22:00:00,
2013-08-20 15:01:00,72.0,53.2,30.15,East,86,2.3,12.7,52,0.00,,,0.00,WUHU21636XXSP,2013-08-20 22:01:00,
2013-08-20 15:02:00,72.1,53.3,30.15,NNE,22,5.3,12.7,52,0.00,,,0.00,WUHU21636XXSP,2013-08-20 22:02:00,
2013-08-20 15:03:00,72.1,53.3,30.15,North,0,7.1,12.7,52,0.00,,,0.00,WUHU21636XXSP,2013-08-20 22:03:00,
2013-08-20 15:04:00,72.1,53.3,30.15,North,0,8.0,12.7,52,0.00,,,0.00,WUHU21636XXSP,2013-08-20 22:04:00,
2013-08-20 15:05:00,72.1,52.8,30.15,North,3,6.6,12.7,51,0.00,,,0.00,WUHU21636XXSP,2013-08-20 22:05:00,
2013-08-20 15:06:00,72.1,53.3,30.15,NNE,22,7.3,12.7,52,0.00,,,0.00,WUHU21636XXSP,2013-08-20 22:06:00,
2013-08-20 15:07:00,72.1,53.3,30.15,NNE,21,4.6,12.3,52,0.00,,,0.00,WUHU21636XXSP,2013-08-20 22:07:00,
2013-08-20 15:08:00,72.1,53.3,30.15,ESE,108,2.0,12.3,52,0.00,,,0.00,WUHU21636XXSP,2013-08-20 22:08:00,
2013-08-20 15:09:00,72.0,53.2,30.14,ESE,118,1.5,12.3,52,0.00,,,0.00,WUHU21636XXSP,2013-08-20 22:09:00,
2013-08-20 15:10:00,72.0,53.2,30.14,NNE,22,1.3,12.3,52,0.00,,,0.00,WUHU21636XXSP,2013-08-20 22:10:00,
2013-08-20 15:11:00,72.0,52.7,30.14,NNE,22,5.8,12.3,51,0.00,,,0.00,WUHU21636XXSP,2013-08-20 22:11:00,
2013-08-20 15:12:00,72.1,52.8,30.15,NE,54,2.7,12.3,51,0.00,,,0.00,WUHU21636XXSP,2013-08-20 22:12:00,
2013-08-20 15:13:00,72.1,52.8,30.15,SE,129,1.8,12.3,51,0.00,,,0.00,WUHU21636XXSP,2013-08-20 22:13:00,
2013-08-20 15:14:00,72.0,52.7,30.15,SE,135,1.7,12.3,51,0.00,,,0.00,WUHU21636XXSP,2013-08-20 22:14:00,
2013-08-20 15:15:00,72.0,52.7,30.14,SE,135,1.7,12.3,51,0.00,,,0.00,WUHU21636XXSP,2013-08-20 22:15:00,
2013-08-20 15:16:00,72.0,53.2,30.14,NNE,22,4.2,7.3,52,0.00,,,0.00,WUHU21636XXSP,2013-08-20 22:16:00,
2013-08-20 15:17:00,72.0,53.2,30.14,NNE,22,4.2,6.9,52,0.00,,,0.00,WUHU21636XXSP,2013-08-20 22:17:00,
2013-08-20 15:19:00,71.8,52.5,30.14,SE,130,1.9,6.9,51,0.00,,,0.00,WUHU21636XXSP,2013-08-20 22:19:00,
2013-08-20 15:20:00,72.0,53.2,30.14,South,180,1.0,6.9,52,0.00,,,0.00,WUHU21636XXSP,2013-08-20 22:20:00,
2013-08-20 15:21:00,72.0,53.2,30.14,South,180,0.7,5.8,52,0.00,,,0.00,WUHU21636XXSP,2013-08-20 22:21:00,
2013-08-20 15:22:00,72.0,52.7,30.14,North,0,7.3,8.9,51,0.00,,,0.00,WUHU21636XXSP,2013-08-20 22:22:00,
2013-08-20 15:24:00,71.8,52.5,30.14,North,10,4.6,8.9,51,0.00,,,0.00,WUHU21636XXSP,2013-08-20 22:24:00,
2013-08-20 15:26:00,71.8,52.5,30.14,NNE,22,3.4,8.9,51,0.00,,,0.00,WUHU21636XXSP,2013-08-20 22:26:00,
2013-08-20 15:27:00,71.8,52.5,30.14,NNE,22,4.9,8.9,51,0.00,,,0.00,WUHU21636XXSP,2013-08-20 22:27:00,
2013-08-20 15:29:00,71.8,52.5,30.14,NNE,16,5.4,8.9,51,0.00,,,0.00,WUHU21636XXSP,2013-08-20 22:29:00,
2013-08-20 15:31:00,72.0,52.7,30.14,NNE,22,4.3,9.1,51,0.00,,,0.00,WUHU21636XXSP,2013-08-20 22:31:00,
2013-08-20 15:32:00,72.0,52.1,30.14,NNE,22,4.2,9.1,49,0.00,,,0.00,WUHU21636XXSP,2013-08-20 22:32:00,
2013-08-20 15:34:00,72.0,52.1,30.14,NNE,22,4.2,9.1,49,0.00,,,0.00,WUHU21636XXSP,2013-08-20 22:34:00,
2013-08-20 15:36:00,71.8,51.9,30.14,NNW,337,7.6,13.1,49,0.00,,,0.00,WUHU21636XXSP,2013-08-20 22:36:00,
2013-08-20 15:37:00,71.8,51.9,30.14,North,0,8.9,13.1,49,0.00,,,0.00,WUHU21636XXSP,2013-08-20 22:37:00,
2013-08-20 15:40:00,71.8,51.3,30.14,North,0,3.3,13.1,48,0.00,,,0.00,WUHU21636XXSP,2013-08-20 22:40:00,
2013-08-20 15:41:00,71.6,51.1,30.14,North,0,5.3,13.1,48,0.00,,,0.00,WUHU21636XXSP,2013-08-20 22:41:00,
2013-08-20 15:42:00,71.6,51.1,30.14,North,0,5.3,13.1,48,0.00,,,0.00,WUHU21636XXSP,2013-08-20 22:42:00,
2013-08-20 15:43:00,71.4,51.5,30.14,North,0,5.3,13.1,49,0.00,,,0.00,WUHU21636XXSP,2013-08-20 22:43:00,
2013-08-20 15:45:00,71.4,51.5,30.14,North,0,3.3,13.1,49,0.00,,,0.00,WUHU21636XXSP,2013-08-20 22:45:00,
2013-08-20 15:46:00,71.4,51.5,30.14,North,0,3.3,12.7,49,0.00,,,0.00,WUHU21636XXSP,2013-08-20 22:46:00,
2013-08-20 15:47:00,71.6,52.3,30.14,North,6,3.2,7.1,51,0.00,,,0.00,WUHU21636XXSP,2013-08-20 22:47:00,
2013-08-20 15:48:00,71.6,52.3,30.14,ENE,71,2.9,5.3,51,0.00,,,0.00,WUHU21636XXSP,2013-08-20 22:48:00,
2013-08-20 15:50:00,71.6,51.7,30.14,NE,45,2.6,5.3,49,0.00,,,0.00,WUHU21636XXSP,2013-08-20 22:50:00,
2013-08-20 15:51:00,71.8,51.9,30.14,NNW,337,9.1,10.9,49,0.00,,,0.00,WUHU21636XXSP,2013-08-20 22:51:00,
2013-08-20 15:52:00,71.8,51.9,30.14,North,0,10.5,14.9,49,0.00,,,0.00,WUHU21636XXSP,2013-08-20 22:52:00,
2013-08-20 15:53:00,71.6,51.7,30.14,North,356,7.0,14.9,49,0.00,,,0.00,WUHU21636XXSP,2013-08-20 22:53:00,
2013-08-20 15:55:00,71.4,51.5,30.14,North,9,6.1,14.9,49,0.00,,,0.00,WUHU21636XXSP,2013-08-20 22:55:00,
2013-08-20 15:56:00,71.4,51.5,30.14,North,0,9.3,14.9,49,0.00,,,0.00,WUHU21636XXSP,2013-08-20 22:56:00,
2013-08-20 15:57:00,71.4,51.5,30.14,North,0,10.9,15.2,49,0.00,,,0.00,WUHU21636XXSP,2013-08-20 22:57:00,
2013-08-20 15:58:00,71.2,50.8,30.14,North,1,9.5,15.2,48,0.00,,,0.00,WUHU21636XXSP,2013-08-20 22:58:00,
2013-08-20 16:00:00,71.2,50.8,30.14,NE,49,1.5,15.2,48,0.00,,,0.00,WUHU21636XXSP,2013-08-20 23:00:00,
2013-08-20 16:01:00,71.2,50.8,30.14,ENE,57,1.3,15.2,48,0.00,,,0.00,WUHU21636XXSP,2013-08-20 23:01:00,
2013-08-20 16:02:00,71.2,50.8,30.14,ENE,67,1.1,15.2,48,0.00,,,0.00,WUHU21636XXSP,2013-08-20 23:02:00,
2013-08-20 16:03:00,71.2,50.8,30.14,NNW,337,3.5,15.2,48,0.00,,,0.00,WUHU21636XXSP,2013-08-20 23:03:00,
2013-08-20 16:05:00,71.2,51.4,30.14,NNW,337,3.5,15.2,49,0.00,,,0.00,WUHU21636XXSP,2013-08-20 23:05:00,
2013-08-20 16:06:00,71.2,51.4,30.14,NNE,22,0.0,10.9,49,0.00,,,0.00,WUHU21636XXSP,2013-08-20 23:06:00,
2013-08-20 16:07:00,71.2,51.4,30.14,NE,45,4.4,10.5,49,0.00,,,0.00,WUHU21636XXSP,2013-08-20 23:07:00,
2013-08-20 16:08:00,71.2,51.4,30.14,NE,45,4.4,5.1,49,0.00,,,0.00,WUHU21636XXSP,2013-08-20 23:08:00,
2013-08-20 16:11:00,71.6,51.1,30.14,NNW,343,2.7,4.4,48,0.00,,,0.00,WUHU21636XXSP,2013-08-20 23:11:00,
2013-08-20 16:12:00,71.6,51.1,30.14,NNE,22,4.0,7.3,48,0.00,,,0.00,WUHU21636XXSP,2013-08-20 23:12:00,
2013-08-20 16:13:00,71.8,51.3,30.14,NE,38,4.4,7.3,48,0.00,,,0.00,WUHU21636XXSP,2013-08-20 23:13:00,
2013-08-20 16:16:00,71.8,50.7,30.14,NNE,31,2.7,7.3,47,0.00,,,0.00,WUHU21636XXSP,2013-08-20 23:16:00,
2013-08-20 16:17:00,71.6,49.3,30.14,NNE,13,4.2,8.7,45,0.00,,,0.00,WUHU21636XXSP,2013-08-20 23:17:00,
2013-08-20 16:18:00,71.4,49.7,30.14,NNW,348,3.6,8.7,46,0.00,,,0.00,WUHU21636XXSP,2013-08-20 23:18:00,
2013-08-20 16:21:00,71.4,48.5,30.14,NNW,337,0.8,8.7,44,0.00,,,0.00,WUHU21636XXSP,2013-08-20 23:21:00,
2013-08-20 16:22:00,71.4,49.1,30.13,NNW,337,0.8,8.7,45,0.00,,,0.00,WUHU21636XXSP,2013-08-20 23:22:00,
2013-08-20 16:24:00,71.4,49.1,30.13,North,0,2.2,8.7,45,0.00,,,0.00,WUHU21636XXSP,2013-08-20 23:24:00,
2013-08-20 16:26:00,71.4,49.1,30.13,North,0,2.2,8.7,45,0.00,,,0.00,WUHU21636XXSP,2013-08-20 23:26:00,
2013-08-20 16:27:00,71.4,49.1,30.13,NNE,15,1.5,2.2,45,0.00,,,0.00,WUHU21636XXSP,2013-08-20 23:27:00,
2013-08-20 16:29:00,71.8,49.5,30.14,NNE,22,6.9,9.1,45,0.00,,,0.00,WUHU21636XXSP,2013-08-20 23:29:00,
2013-08-20 16:31:00,71.6,48.7,30.13,NNE,33,7.8,19.9,44,0.00,,,0.00,WUHU21636XXSP,2013-08-20 23:31:00,
2013-08-20 16:32:00,71.6,48.7,30.13,NNE,12,1.9,19.9,44,0.00,,,0.00,WUHU21636XXSP,2013-08-20 23:32:00,
2013-08-20 16:33:00,71.6,48.7,30.13,North,6,1.8,19.9,44,0.00,,,0.00,WUHU21636XXSP,2013-08-20 23:33:00,
2013-08-20 16:34:00,71.6,48.7,30.13,North,0,11.1,19.9,44,0.00,,,0.00,WUHU21636XXSP,2013-08-20 23:34:00,
2013-08-20 16:36:00,71.6,48.7,30.13,NNE,29,4.6,19.9,44,0.00,,,0.00,WUHU21636XXSP,2013-08-20 23:36:00,
2013-08-20 16:37:00,71.4,49.1,30.13,North,0,9.8,19.9,45,0.00,,,0.00,WUHU21636XXSP,2013-08-20 23:37:00,
2013-08-20 16:38:00,71.4,49.1,30.13,North,0,9.8,19.9,45,0.00,,,0.00,WUHU21636XXSP,2013-08-20 23:38:00,
2013-08-20 16:39:00,71.4,48.5,30.13,North,357,9.5,15.4,44,0.00,,,0.00,WUHU21636XXSP,2013-08-20 23:39:00,
2013-08-20 16:41:00,71.4,49.1,30.13,North,358,3.1,15.4,45,0.00,,,0.00,WUHU21636XXSP,2013-08-20 23:41:00,
2013-08-20 16:43:00,71.4,49.7,30.13,NNE,14,2.2,15.4,46,0.00,,,0.00,WUHU21636XXSP,2013-08-20 23:43:00,
2013-08-20 16:44:00,71.4,49.7,30.13,NNW,337,1.5,14.3,46,0.00,,,0.00,WUHU21636XXSP,2013-08-20 23:44:00,
2013-08-20 16:46:00,71.6,49.3,30.13,North,2,5.2,14.3,45,0.00,,,0.00,WUHU21636XXSP,2013-08-20 23:46:00,
2013-08-20 16:48:00,71.4,49.1,30.13,NNE,24,5.4,14.0,45,0.00,,,0.00,WUHU21636XXSP,2013-08-20 23:48:00,
2013-08-20 16:49:00,71.6,49.3,30.13,NNE,28,3.4,12.5,45,0.00,,,0.00,WUHU21636XXSP,2013-08-20 23:49:00,
2013-08-20 16:51:00,71.8,49.5,30.13,NNW,337,9.6,18.1,45,0.00,,,0.00,WUHU21636XXSP,2013-08-20 23:51:00,
2013-08-20 16:53:00,71.6,49.3,30.13,North,2,5.8,18.1,45,0.00,,,0.00,WUHU21636XXSP,2013-08-20 23:53:00,
2013-08-20 16:54:00,71.6,48.7,30.13,North,0,11.1,18.1,44,0.00,,,0.00,WUHU21636XXSP,2013-08-20 23:54:00,
2013-08-20 16:57:00,71.4,48.5,30.13,North,354,8.8,18.1,44,0.00,,,0.00,WUHU21636XXSP,2013-08-20 23:57:00,
2013-08-20 16:58:00,71.4,48.5,30.13,North,358,7.9,18.1,44,0.00,,,0.00,WUHU21636XXSP,2013-08-20 23:58:00,
2013-08-20 16:59:00,71.2,48.3,30.13,North,0,4.9,18.1,44,0.00,,,0.00,WUHU21636XXSP,2013-08-20 23:59:00,
2013-08-20 17:02:00,71.2,48.9,30.13,North,0,4.9,15.8,45,0.00,,,0.00,WUHU21636XXSP,2013-08-21 00:02:00,
2013-08-20 17:03:00,71.2,48.9,30.13,North,0,4.9,15.8,45,0.00,,,0.00,WUHU21636XXSP,2013-08-21 00:03:00,
2013-08-20 17:05:00,71.2,48.9,30.13,NNE,13,8.1,15.8,45,0.00,,,0.00,WUHU21636XXSP,2013-08-21 00:05:00,
2013-08-20 17:07:00,71.2,49.6,30.13,NNE,22,8.9,10.9,46,0.00,,,0.00,WUHU21636XXSP,2013-08-21 00:07:00,
2013-08-20 17:08:00,71.2,48.9,30.13,North,0,8.0,12.9,45,0.00,,,0.00,WUHU21636XXSP,2013-08-21 00:08:00,
2013-08-20 17:10:00,71.2,48.9,30.13,North,11,7.0,12.9,45,0.00,,,0.00,WUHU21636XXSP,2013-08-21 00:10:00,
2013-08-20 17:12:00,71.2,48.9,30.13,North,0,10.2,17.4,45,0.00,,,0.00,WUHU21636XXSP,2013-08-21 00:12:00,
2013-08-20 17:13:00,71.2,48.9,30.13,North,0,11.8,17.4,45,0.00,,,0.00,WUHU21636XXSP,2013-08-21 00:13:00,
2013-08-20 17:14:00,71.2,48.9,30.13,North,6,11.0,17.4,45,0.00,,,0.00,WUHU21636XXSP,2013-08-21 00:14:00,
2013-08-20 17:15:00,70.9,48.7,30.13,North,357,9.9,17.4,45,0.00,,,0.00,WUHU21636XXSP,2013-08-21 00:15:00,
2013-08-20 17:17:00,70.9,48.7,30.13,NNW,337,10.5,17.4,45,0.00,,,0.00,WUHU21636XXSP,2013-08-21 00:17:00,
2013-08-20 17:18:00,70.9,48.7,30.13,North,3,8.5,17.4,45,0.00,,,0.00,WUHU21636XXSP,2013-08-21 00:18:00,
2013-08-20 17:19:00,70.9,48.7,30.12,North,9,6.6,17.4,45,0.00,,,0.00,WUHU21636XXSP,2013-08-21 00:19:00,
2013-08-20 17:20:00,70.9,49.3,30.12,NNE,23,2.9,17.4,46,0.00,,,0.00,WUHU21636XXSP,2013-08-21 00:20:00,
2013-08-20 17:22:00,71.1,50.1,30.12,North,0,4.2,15.8,47,0.00,,,0.00,WUHU21636XXSP,2013-08-21 00:22:00,
2013-08-20 17:23:00,71.1,50.1,30.12,North,0,4.2,14.0,47,0.00,,,0.00,WUHU21636XXSP,2013-08-21 00:23:00,
2013-08-20 17:24:00,71.1,50.1,30.12,North,0,4.2,13.4,47,0.00,,,0.00,WUHU21636XXSP,2013-08-21 00:24:00,
2013-08-20 17:25:00,70.9,49.9,30.12,North,5,3.1,13.4,47,0.00,,,0.00,WUHU21636XXSP,2013-08-21 00:25:00,
2013-08-20 17:27:00,70.9,49.9,30.12,NNW,337,6.9,9.6,47,0.00,,,0.00,WUHU21636XXSP,2013-08-21 00:27:00,
2013-08-20 17:28:00,70.9,49.9,30.12,North,0,7.1,11.6,47,0.00,,,0.00,WUHU21636XXSP,2013-08-21 00:28:00,
2013-08-20 17:29:00,70.9,49.9,30.12,NNW,343,7.7,12.7,47,0.00,,,0.00,WUHU21636XXSP,2013-08-21 00:29:00,
2013-08-20 17:30:00,70.9,50.5,30.12,NNW,347,5.1,12.7,48,0.00,,,0.00,WUHU21636XXSP,2013-08-21 00:30:00,
2013-08-20 17:33:00,70.9,50.5,30.12,North,5,1.1,12.7,48,0.00,,,0.00,WUHU21636XXSP,2013-08-21 00:33:00,
2013-08-20 17:34:00,70.9,50.5,30.12,NNE,22,0.4,12.7,48,0.00,,,0.00,WUHU21636XXSP,2013-08-21 00:34:00,
2013-08-20 17:35:00,70.9,50.5,30.12,NNE,22,4.4,12.7,48,0.00,,,0.00,WUHU21636XXSP,2013-08-21 00:35:00,
2013-08-20 17:38:00,70.9,50.5,30.12,NE,36,2.1,12.7,48,0.00,,,0.00,WUHU21636XXSP,2013-08-21 00:38:00,
2013-08-20 17:39:00,70.9,50.5,30.12,ENE,67,1.3,10.0,48,0.00,,,0.00,WUHU21636XXSP,2013-08-21 00:39:00,
2013-08-20 17:40:00,70.9,50.5,30.12,ENE,67,1.3,7.6,48,0.00,,,0.00,WUHU21636XXSP,2013-08-21 00:40:00,
2013-08-20 17:43:00,70.9,51.1,30.12,North,0,0.4,7.6,49,0.00,,,0.00,WUHU21636XXSP,2013-08-21 00:43:00,
2013-08-20 17:44:00,70.9,51.1,30.12,North,0,0.4,7.6,49,0.00,,,0.00,WUHU21636XXSP,2013-08-21 00:44:00,
2013-08-20 17:45:00,70.9,51.1,30.12,North,0,0.8,7.6,49,0.00,,,0.00,WUHU21636XXSP,2013-08-21 00:45:00,
2013-08-20 17:48:00,70.9,51.1,30.11,SE,135,4.6,4.6,49,0.00,,,0.00,WUHU21636XXSP,2013-08-21 00:48:00,
2013-08-20 17:49:00,70.9,51.1,30.11,SE,135,4.6,4.6,49,0.00,,,0.00,WUHU21636XXSP,2013-08-21 00:49:00,
2013-08-20 17:51:00,70.7,50.9,30.12,NNE,29,4.2,4.6,49,0.00,,,0.00,WUHU21636XXSP,2013-08-21 00:51:00,
2013-08-20 17:53:00,70.5,50.7,30.12,North,351,7.0,11.1,49,0.00,,,0.00,WUHU21636XXSP,2013-08-21 00:53:00,
2013-08-20 17:54:00,70.5,50.7,30.12,North,0,5.3,11.1,49,0.00,,,0.00,WUHU21636XXSP,2013-08-21 00:54:00,
2013-08-20 17:56:00,70.5,50.7,30.11,North,7,3.5,11.1,49,0.00,,,0.00,WUHU21636XXSP,2013-08-21 00:56:00,
2013-08-20 17:58:00,70.5,50.7,30.12,North,0,6.4,11.1,49,0.00,,,0.00,WUHU21636XXSP,2013-08-21 00:58:00,
2013-08-20 17:59:00,70.5,50.7,30.12,North,4,4.9,11.1,49,0.00,,,0.00,WUHU21636XXSP,2013-08-21 00:59:00,
2013-08-20 18:01:00,70.5,50.7,30.12,North,0,3.0,11.1,49,0.00,,,0.00,WUHU21636XXSP,2013-08-21 01:01:00,
2013-08-20 18:03:00,70.3,51.1,30.12,NNW,337,5.8,10.0,51,0.00,,,0.00,WUHU21636XXSP,2013-08-21 01:03:00,
2013-08-20 18:04:00,70.3,50.5,30.12,North,355,5.1,10.0,49,0.00,,,0.00,WUHU21636XXSP,2013-08-21 01:04:00,
2013-08-20 18:06:00,70.3,50.5,30.11,NE,45,2.9,10.0,49,0.00,,,0.00,WUHU21636XXSP,2013-08-21 01:06:00,
2013-08-20 18:08:00,70.3,51.1,30.11,NNW,337,5.3,8.7,51,0.00,,,0.00,WUHU21636XXSP,2013-08-21 01:08:00,
2013-08-20 18:09:00,70.3,51.1,30.11,NNW,337,5.3,6.9,51,0.00,,,0.00,WUHU21636XXSP,2013-08-21 01:09:00,
2013-08-20 18:11:00,70.2,51.0,30.11,North,355,4.4,6.9,51,0.00,,,0.00,WUHU21636XXSP,2013-08-21 01:11:00,
2013-08-20 18:14:00,70.0,50.8,30.11,NE,38,2.0,5.8,51,0.00,,,0.00,WUHU21636XXSP,2013-08-21 01:14:00,
2013-08-20 18:16:00,70.2,51.0,30.11,NNE,22,1.7,5.3,51,0.00,,,0.00,WUHU21636XXSP,2013-08-21 01:16:00,
2013-08-20 18:19:00,70.0,49.7,30.11,North,0,4.4,5.3,48,0.00,,,0.00,WUHU21636XXSP,2013-08-21 01:19:00,
2013-08-20 18:20:00,70.0,50.8,30.11,North,0,3.9,5.3,51,0.00,,,0.00,WUHU21636XXSP,2013-08-21 01:20:00,
2013-08-20 18:21:00,70.0,50.8,30.11,NNE,22,6.4,7.1,51,0.00,,,0.00,WUHU21636XXSP,2013-08-21 01:21:00,
2013-08-20 18:24:00,69.8,50.1,30.11,NNE,17,6.3,12.9,49,0.00,,,0.00,WUHU21636XXSP,2013-08-21 01:24:00,
2013-08-20 18:25:00,70.0,50.8,30.11,NNE,19,6.1,12.9,51,0.00,,,0.00,WUHU21636XXSP,2013-08-21 01:25:00,
2013-08-20 18:26:00,70.0,50.8,30.11,NNE,21,2.3,12.9,51,0.00,,,0.00,WUHU21636XXSP,2013-08-21 01:26:00,
2013-08-20 18:30:00,69.8,50.1,30.11,North,0,0.0,12.9,49,0.00,,,0.00,WUHU21636XXSP,2013-08-21 01:30:00,
2013-08-20 18:32:00,69.6,49.9,30.11,NNE,22,2.6,12.9,49,0.00,,,0.00,WUHU21636XXSP,2013-08-21 01:32:00,
2013-08-20 18:35:00,69.6,49.9,30.11,NNE,22,2.6,2.6,49,0.00,,,0.00,WUHU21636XXSP,2013-08-21 01:35:00,
2013-08-20 18:37:00,69.6,50.5,30.11,North,0,4.0,4.0,51,0.00,,,0.00,WUHU21636XXSP,2013-08-21 01:37:00,
2013-08-20 18:40:00,69.6,50.5,30.11,NNW,337,6.0,6.7,51,0.00,,,0.00,WUHU21636XXSP,2013-08-21 01:40:00,
2013-08-20 18:42:00,69.6,51.0,30.11,NE,40,3.2,7.8,52,0.00,,,0.00,WUHU21636XXSP,2013-08-21 01:42:00,
2013-08-20 18:45:00,69.6,51.0,30.11,ESE,112,0.0,7.8,52,0.00,,,0.00,WUHU21636XXSP,2013-08-21 01:45:00,
2013-08-20 18:47:00,69.4,50.8,30.11,North,0,5.3,7.8,52,0.00,,,0.00,WUHU21636XXSP,2013-08-21 01:47:00,
2013-08-20 18:50:00,69.4,50.8,30.11,North,357,4.5,7.8,52,0.00,,,0.00,WUHU21636XXSP,2013-08-21 01:50:00,
2013-08-20 18:51:00,69.4,50.8,30.11,North,350,3.3,5.3,52,0.00,,,0.00,WUHU21636XXSP,2013-08-21 01:51:00,
2013-08-20 18:53:00,69.4,50.8,30.11,NNW,337,2.2,5.3,52,0.00,,,0.00,WUHU21636XXSP,2013-08-21 01:53:00,
2013-08-20 18:55:00,69.3,50.7,30.11,ENE,67,0.0,5.3,52,0.00,,,0.00,WUHU21636XXSP,2013-08-21 01:55:00,
2013-08-20 18:56:00,69.1,51.1,30.11,ENE,67,0.0,5.3,53,0.00,,,0.00,WUHU21636XXSP,2013-08-21 01:56:00,
2013-08-20 18:57:00,69.1,51.1,30.11,ENE,67,0.0,5.3,53,0.00,,,0.00,WUHU21636XXSP,2013-08-21 01:57:00,
2013-08-20 18:58:00,69.1,51.1,30.11,NNE,22,0.0,5.3,53,0.00,,,0.00,WUHU21636XXSP,2013-08-21 01:58:00,
2013-08-20 19:00:00,69.1,51.1,30.11,North,0,0.0,2.2,53,0.00,,,0.00,WUHU21636XXSP,2013-08-21 02:00:00,
2013-08-20 19:01:00,69.1,51.1,30.11,North,0,0.0,2.2,53,0.00,,,0.00,WUHU21636XXSP,2013-08-21 02:01:00,
2013-08-20 19:02:00,69.1,51.1,30.11,North,0,0.0,0.0,53,0.00,,,0.00,WUHU21636XXSP,2013-08-21 02:02:00,
2013-08-20 19:03:00,68.9,50.9,30.11,NNE,22,3.3,3.3,53,0.00,,,0.00,WUHU21636XXSP,2013-08-21 02:03:00,
2013-08-20 19:05:00,68.9,50.9,30.10,NNE,22,3.3,3.3,53,0.00,,,0.00,WUHU21636XXSP,2013-08-21 02:05:00,
2013-08-20 19:06:00,68.9,50.9,30.10,NNE,22,3.3,3.3,53,0.00,,,0.00,WUHU21636XXSP,2013-08-21 02:06:00,
2013-08-20 19:07:00,68.7,50.7,30.11,ESE,112,0.0,3.3,53,0.00,,,0.00,WUHU21636XXSP,2013-08-21 02:07:00,
2013-08-20 19:09:00,68.7,50.7,30.11,NNE,22,2.2,3.3,53,0.00,,,0.00,WUHU21636XXSP,2013-08-21 02:09:00,
2013-08-20 19:10:00,68.7,50.7,30.11,NNE,22,2.2,3.3,53,0.00,,,0.00,WUHU21636XXSP,2013-08-21 02:10:00,
2013-08-20 19:11:00,68.7,50.7,30.11,NNE,22,2.2,3.3,53,0.00,,,0.00,WUHU21636XXSP,2013-08-21 02:11:00,
2013-08-20 19:12:00,68.7,50.7,30.11,NNE,22,2.2,3.3,53,0.00,,,0.00,WUHU21636XXSP,2013-08-21 02:12:00,
2013-08-20 19:15:00,68.5,50.5,30.11,NNE,22,1.3,2.2,53,0.00,,,0.00,WUHU21636XXSP,2013-08-21 02:15:00,
2013-08-20 19:16:00,68.5,51.1,30.11,North,0,4.4,4.4,54,0.00,,,0.00,WUHU21636XXSP,2013-08-21 02:16:00,
2013-08-20 19:17:00,68.4,51.0,30.11,North,0,4.4,4.4,54,0.00,,,0.00,WUHU21636XXSP,2013-08-21 02:17:00,
2013-08-20 19:20:00,68.4,51.0,30.11,North,0,2.6,4.4,54,0.00,,,0.00,WUHU21636XXSP,2013-08-21 02:20:00,
2013-08-20 19:21:00,68.4,51.0,30.11,North,0,2.6,4.4,54,0.00,,,0.00,WUHU21636XXSP,2013-08-21 02:21:00,
2013-08-20 19:22:00,68.4,51.0,30.11,North,0,2.6,4.4,54,0.00,,,0.00,WUHU21636XXSP,2013-08-21 02:22:00,
2013-08-20 19:25:00,68.2,50.8,30.11,North,0,0.0,4.4,54,0.00,,,0.00,WUHU21636XXSP,2013-08-21 02:25:00,
2013-08-20 19:26:00,68.2,50.8,30.10,North,0,0.0,4.4,54,0.00,,,0.00,WUHU21636XXSP,2013-08-21 02:26:00,
2013-08-20 19:27:00,68.2,50.8,30.11,NE,45,2.6,2.6,54,0.00,,,0.00,WUHU21636XXSP,2013-08-21 02:27:00,
2013-08-20 19:28:00,68.2,50.8,30.11,NE,45,2.6,2.6,54,0.00,,,0.00,WUHU21636XXSP,2013-08-21 02:28:00,
2013-08-20 19:30:00,67.8,51.0,30.11,North,0,0.0,2.6,55,0.00,,,0.00,WUHU21636XXSP,2013-08-21 02:30:00,
2013-08-20 19:32:00,67.8,51.0,30.11,North,0,0.0,2.6,55,0.00,,,0.00,WUHU21636XXSP,2013-08-21 02:32:00,
2013-08-20 19:33:00,67.8,51.0,30.11,North,0,0.0,2.6,55,0.00,,,0.00,WUHU21636XXSP,2013-08-21 02:33:00,
2013-08-20 19:35:00,67.6,50.8,30.11,NE,45,1.3,2.6,55,0.00,,,0.00,WUHU21636XXSP,2013-08-21 02:35:00,
2013-08-20 19:37:00,67.6,50.8,30.11,North,0,1.7,2.6,55,0.00,,,0.00,WUHU21636XXSP,2013-08-21 02:37:00,
2013-08-20 19:38:00,67.6,50.8,30.11,North,0,1.7,1.7,55,0.00,,,0.00,WUHU21636XXSP,2013-08-21 02:38:00,
2013-08-20 19:41:00,67.6,50.8,30.11,North,0,3.8,3.8,55,0.00,,,0.00,WUHU21636XXSP,2013-08-21 02:41:00,
2013-08-20 19:42:00,67.6,50.8,30.11,North,0,3.8,3.8,55,0.00,,,0.00,WUHU21636XXSP,2013-08-21 02:42:00,
2013-08-20 19:43:00,67.6,50.8,30.11,North,0,3.8,3.8,55,0.00,,,0.00,WUHU21636XXSP,2013-08-21 02:43:00,
2013-08-20 19:46:00,67.3,50.5,30.11,North,0,3.3,3.8,55,0.00,,,0.00,WUHU21636XXSP,2013-08-21 02:46:00,
2013-08-20 19:47:00,67.3,50.5,30.11,North,0,3.3,3.8,55,0.00,,,0.00,WUHU21636XXSP,2013-08-21 02:47:00,
2013-08-20 19:48:00,67.1,50.3,30.11,North,0,3.3,3.8,55,0.00,,,0.00,WUHU21636XXSP,2013-08-21 02:48:00,
2013-08-20 19:49:00,67.1,50.3,30.11,North,0,3.3,3.8,55,0.00,,,0.00,WUHU21636XXSP,2013-08-21 02:49:00,
2013-08-20 19:51:00,67.1,50.8,30.11,NNE,22,0.0,3.3,56,0.00,,,0.00,WUHU21636XXSP,2013-08-21 02:51:00,
2013-08-20 19:52:00,66.9,50.6,30.11,NNW,337,2.9,3.3,56,0.00,,,0.00,WUHU21636XXSP,2013-08-21 02:52:00,
2013-08-20 19:53:00,66.9,50.6,30.11,NNW,337,2.9,3.3,56,0.00,,,0.00,WUHU21636XXSP,2013-08-21 02:53:00,
2013-08-20 19:54:00,66.9,50.6,30.11,NNW,337,2.9,3.3,56,0.00,,,0.00,WUHU21636XXSP,2013-08-21 02:54:00,
2013-08-20 19:56:00,66.7,50.4,30.11,NE,45,0.0,3.3,56,0.00,,,0.00,WUHU21636XXSP,2013-08-21 02:56:00,
2013-08-20 19:57:00,66.7,50.4,30.11,NE,45,0.0,3.3,56,0.00,,,0.00,WUHU21636XXSP,2013-08-21 02:57:00,
2013-08-20 19:58:00,66.7,50.4,30.11,NE,45,0.0,2.9,56,0.00,,,0.00,WUHU21636XXSP,2013-08-21 02:58:00,
2013-08-20 19:59:00,66.6,50.3,30.11,North,0,2.9,2.9,56,0.00,,,0.00,WUHU21636XXSP,2013-08-21 02:59:00,
2013-08-20 20:01:00,66.6,50.3,30.11,North,0,4.2,4.2,56,0.00,,,0.00,WUHU21636XXSP,2013-08-21 03:01:00,
2013-08-20 20:02:00,66.6,50.3,30.11,North,0,4.2,4.2,56,0.00,,,0.00,WUHU21636XXSP,2013-08-21 03:02:00,
2013-08-20 20:03:00,66.4,50.2,30.11,North,2,3.7,4.2,56,0.00,,,0.00,WUHU21636XXSP,2013-08-21 03:03:00,
2013-08-20 20:04:00,66.4,50.2,30.11,North,9,2.6,4.2,56,0.00,,,0.00,WUHU21636XXSP,2013-08-21 03:04:00,
2013-08-20 20:05:00,66.4,50.2,30.11,NNW,337,7.8,9.6,56,0.00,,,0.00,WUHU21636XXSP,2013-08-21 03:05:00,
2013-08-20 20:06:00,66.4,50.2,30.11,North,352,6.1,10.5,56,0.00,,,0.00,WUHU21636XXSP,2013-08-21 03:06:00,
2013-08-20 20:08:00,66.0,49.8,30.11,North,351,2.9,10.5,56,0.00,,,0.00,WUHU21636XXSP,2013-08-21 03:08:00,
2013-08-20 20:09:00,66.0,49.8,30.11,NNW,337,2.2,10.5,56,0.00,,,0.00,WUHU21636XXSP,2013-08-21 03:09:00,
2013-08-20 20:10:00,66.0,49.8,30.11,NNE,22,5.1,10.5,56,0.00,,,0.00,WUHU21636XXSP,2013-08-21 03:10:00,
2013-08-20 20:12:00,66.0,49.8,30.11,North,6,4.2,10.5,56,0.00,,,0.00,WUHU21636XXSP,2013-08-21 03:12:00,
2013-08-20 20:13:00,66.0,49.8,30.11,North,6,3.2,10.5,56,0.00,,,0.00,WUHU21636XXSP,2013-08-21 03:13:00,
2013-08-20 20:14:00,66.0,49.8,30.11,NNE,15,2.6,10.5,56,0.00,,,0.00,WUHU21636XXSP,2013-08-21 03:14:00,
2013-08-20 20:15:00,66.0,50.3,30.11,NNE,22,2.2,10.5,57,0.00,,,0.00,WUHU21636XXSP,2013-08-21 03:15:00,
2013-08-20 20:17:00,65.8,50.1,30.11,NNE,22,0.0,8.7,57,0.00,,,0.00,WUHU21636XXSP,2013-08-21 03:17:00,
2013-08-20 20:18:00,65.8,50.1,30.11,NNE,22,0.0,8.7,57,0.00,,,0.00,WUHU21636XXSP,2013-08-21 03:18:00,
2013-08-20 20:19:00,65.8,50.1,30.11,North,0,4.0,8.7,57,0.00,,,0.00,WUHU21636XXSP,2013-08-21 03:19:00,
2013-08-20 20:20:00,65.8,50.1,30.11,North,0,4.0,5.1,57,0.00,,,0.00,WUHU21636XXSP,2013-08-21 03:20:00,
2013-08-20 20:22:00,65.8,50.1,30.11,North,0,4.0,4.0,57,0.00,,,0.00,WUHU21636XXSP,2013-08-21 03:22:00,
2013-08-20 20:23:00,65.5,49.8,30.11,North,0,0.0,4.0,57,0.00,,,0.00,WUHU21636XXSP,2013-08-21 03:23:00,
2013-08-20 20:24:00,65.5,49.8,30.11,North,0,0.0,4.0,57,0.00,,,0.00,WUHU21636XXSP,2013-08-21 03:24:00,
2013-08-20 20:26:00,65.5,50.3,30.11,NNE,22,0.0,4.0,58,0.00,,,0.00,WUHU21636XXSP,2013-08-21 03:26:00,
2013-08-20 20:27:00,65.5,50.3,30.11,NNE,22,0.0,4.0,58,0.00,,,0.00,WUHU21636XXSP,2013-08-21 03:27:00,
2013-08-20 20:28:00,65.5,50.3,30.11,NNE,22,0.0,4.0,58,0.00,,,0.00,WUHU21636XXSP,2013-08-21 03:28:00,
2013-08-20 20:29:00,65.5,50.3,30.11,NNE,22,0.0,4.0,58,0.00,,,0.00,WUHU21636XXSP,2013-08-21 03:29:00,
2013-08-20 20:31:00,65.3,50.1,30.11,NNE,22,0.0,0.0,58,0.00,,,0.00,WUHU21636XXSP,2013-08-21 03:31:00,
2013-08-20 20:32:00,65.1,49.9,30.11,NNE,22,0.0,0.0,58,0.00,,,0.00,WUHU21636XXSP,2013-08-21 03:32:00,
2013-08-20 20:34:00,65.1,49.9,30.11,NNE,22,0.0,0.0,58,0.00,,,0.00,WUHU21636XXSP,2013-08-21 03:34:00,
2013-08-20 20:35:00,65.1,49.9,30.11,NNE,22,0.0,0.0,58,0.00,,,0.00,WUHU21636XXSP,2013-08-21 03:35:00,
2013-08-20 20:36:00,64.9,50.2,30.11,NNE,22,0.0,0.0,59,0.00,,,0.00,WUHU21636XXSP,2013-08-21 03:36:00,
2013-08-20 20:37:00,64.9,50.2,30.11,NNE,22,0.0,0.0,59,0.00,,,0.00,WUHU21636XXSP,2013-08-21 03:37:00,
2013-08-20 20:39:00,64.9,50.2,30.11,NNE,22,0.0,0.0,59,0.00,,,0.00,WUHU21636XXSP,2013-08-21 03:39:00,
2013-08-20 20:40:00,64.9,50.2,30.11,NNE,22,0.0,0.0,59,0.00,,,0.00,WUHU21636XXSP,2013-08-21 03:40:00,
2013-08-20 20:41:00,64.8,50.1,30.11,North,0,0.0,0.0,59,0.00,,,0.00,WUHU21636XXSP,2013-08-21 03:41:00,
2013-08-20 20:42:00,64.6,50.0,30.11,North,0,0.0,0.0,59,0.00,,,0.00,WUHU21636XXSP,2013-08-21 03:42:00,
2013-08-20 20:44:00,64.6,50.0,30.11,North,0,0.0,0.0,59,0.00,,,0.00,WUHU21636XXSP,2013-08-21 03:44:00,
2013-08-20 20:45:00,64.6,50.0,30.11,North,0,0.0,0.0,59,0.00,,,0.00,WUHU21636XXSP,2013-08-21 03:45:00,
2013-08-20 20:46:00,64.6,50.0,30.11,North,0,0.0,0.0,59,0.00,,,0.00,WUHU21636XXSP,2013-08-21 03:46:00,
2013-08-20 20:47:00,64.4,49.8,30.11,North,0,0.0,0.0,59,0.00,,,0.00,WUHU21636XXSP,2013-08-21 03:47:00,
2013-08-20 20:49:00,64.2,49.6,30.11,North,0,0.0,0.0,59,0.00,,,0.00,WUHU21636XXSP,2013-08-21 03:49:00,
2013-08-20 20:50:00,64.2,49.6,30.11,North,0,0.0,0.0,59,0.00,,,0.00,WUHU21636XXSP,2013-08-21 03:50:00,
2013-08-20 20:51:00,64.0,49.4,30.11,North,0,0.0,0.0,59,0.00,,,0.00,WUHU21636XXSP,2013-08-21 03:51:00,
2013-08-20 20:53:00,64.0,49.4,30.11,North,0,0.0,0.0,59,0.00,,,0.00,WUHU21636XXSP,2013-08-21 03:53:00,
2013-08-20 20:54:00,64.0,49.4,30.11,NE,45,0.0,0.0,59,0.00,,,0.00,WUHU21636XXSP,2013-08-21 03:54:00,
2013-08-20 20:55:00,64.0,49.4,30.11,NE,45,0.0,0.0,59,0.00,,,0.00,WUHU21636XXSP,2013-08-21 03:55:00,
2013-08-20 20:56:00,64.0,49.4,30.11,NNE,22,0.0,0.0,59,0.00,,,0.00,WUHU21636XXSP,2013-08-21 03:56:00,
2013-08-20 20:58:00,63.9,49.8,30.11,North,0,0.0,0.0,60,0.00,,,0.00,WUHU21636XXSP,2013-08-21 03:58:00,
2013-08-20 20:59:00,63.9,49.8,30.11,North,0,0.0,0.0,60,0.00,,,0.00,WUHU21636XXSP,2013-08-21 03:59:00,
2013-08-20 21:00:00,63.9,49.8,30.11,North,0,0.0,0.0,60,0.00,,,0.00,WUHU21636XXSP,2013-08-21 04:00:00,
2013-08-20 21:01:00,63.7,49.6,30.11,NE,45,0.0,0.0,60,0.00,,,0.00,WUHU21636XXSP,2013-08-21 04:01:00,
2013-08-20 21:06:00,63.3,49.7,30.11,NE,45,0.0,0.0,61,0.00,,,0.00,WUHU21636XXSP,2013-08-21 04:06:00,
2013-08-20 21:11:00,63.1,49.5,30.11,NNE,22,0.0,0.0,61,0.00,,,0.00,WUHU21636XXSP,2013-08-21 04:11:00,
2013-08-20 21:12:00,63.1,49.5,30.11,NNE,22,0.0,0.0,61,0.00,,,0.00,WUHU21636XXSP,2013-08-21 04:12:00,
2013-08-20 21:16:00,62.8,49.7,30.11,ENE,67,0.0,0.0,62,0.00,,,0.00,WUHU21636XXSP,2013-08-21 04:16:00,
2013-08-20 21:17:00,62.8,49.7,30.11,ENE,67,0.0,0.0,62,0.00,,,0.00,WUHU21636XXSP,2013-08-21 04:17:00,
2013-08-20 21:21:00,62.6,49.5,30.11,NNE,22,0.0,1.7,62,0.00,,,0.00,WUHU21636XXSP,2013-08-21 04:21:00,
2013-08-20 21:22:00,62.4,49.7,30.11,NE,45,0.0,1.7,63,0.00,,,0.00,WUHU21636XXSP,2013-08-21 04:22:00,
2013-08-20 21:26:00,62.2,49.5,30.11,NE,45,0.0,1.7,63,0.00,,,0.00,WUHU21636XXSP,2013-08-21 04:26:00,
2013-08-20 21:27:00,62.2,49.5,30.11,NE,45,0.0,1.7,63,0.00,,,0.00,WUHU21636XXSP,2013-08-21 04:27:00,
2013-08-20 21:31:00,62.2,49.5,30.11,NNW,337,2.2,2.2,63,0.00,,,0.00,WUHU21636XXSP,2013-08-21 04:31:00,
2013-08-20 21:32:00,62.2,49.5,30.11,NNW,337,2.2,2.2,63,0.00,,,0.00,WUHU21636XXSP,2013-08-21 04:32:00,
2013-08-20 21:37:00,61.9,49.7,30.11,North,0,0.0,2.2,64,0.00,,,0.00,WUHU21636XXSP,2013-08-21 04:37:00,
2013-08-20 21:38:00,61.9,49.7,30.11,North,0,0.0,2.2,64,0.00,,,0.00,WUHU21636XXSP,2013-08-21 04:38:00,
2013-08-20 21:42:00,61.7,49.9,30.11,NE,45,0.0,2.2,65,0.00,,,0.00,WUHU21636XXSP,2013-08-21 04:42:00,
2013-08-20 21:43:00,61.5,49.3,30.11,NE,45,0.0,0.0,64,0.00,,,0.00,WUHU21636XXSP,2013-08-21 04:43:00,
2013-08-20 21:47:00,61.3,49.1,30.11,NE,45,0.0,0.0,64,0.00,,,0.00,WUHU21636XXSP,2013-08-21 04:47:00,
2013-08-20 21:48:00,61.3,49.5,30.11,NE,45,0.0,0.0,65,0.00,,,0.00,WUHU21636XXSP,2013-08-21 04:48:00,
2013-08-20 21:52:00,61.2,49.4,30.11,ENE,67,0.0,0.0,65,0.00,,,0.00,WUHU21636XXSP,2013-08-21 04:52:00,
2013-08-20 21:53:00,61.2,49.4,30.11,ENE,67,0.0,0.0,65,0.00,,,0.00,WUHU21636XXSP,2013-08-21 04:53:00,
2013-08-20 21:54:00,61.2,49.4,30.11,ENE,67,0.0,0.0,65,0.00,,,0.00,WUHU21636XXSP,2013-08-21 04:54:00,
2013-08-20 21:57:00,61.0,49.3,30.11,ENE,67,0.0,0.0,65,0.00,,,0.00,WUHU21636XXSP,2013-08-21 04:57:00,
2013-08-20 21:58:00,61.0,49.3,30.11,ENE,67,0.0,0.0,65,0.00,,,0.00,WUHU21636XXSP,2013-08-21 04:58:00,
2013-08-20 21:59:00,61.0,49.7,30.11,ENE,67,0.0,0.0,66,0.00,,,0.00,WUHU21636XXSP,2013-08-21 04:59:00,
2013-08-20 22:02:00,60.8,49.5,30.11,NE,45,0.0,0.0,66,0.00,,,0.00,WUHU21636XXSP,2013-08-21 05:02:00,
2013-08-20 22:03:00,60.8,49.5,30.11,NE,45,0.0,0.0,66,0.00,,,0.00,WUHU21636XXSP,2013-08-21 05:03:00,
2013-08-20 22:04:00,60.8,49.5,30.11,NE,45,0.0,0.0,66,0.00,,,0.00,WUHU21636XXSP,2013-08-21 05:04:00,
2013-08-20 22:07:00,60.6,49.3,30.11,NNE,22,0.0,0.0,66,0.00,,,0.00,WUHU21636XXSP,2013-08-21 05:07:00,
2013-08-20 22:08:00,60.6,49.3,30.11,NNE,22,0.0,0.0,66,0.00,,,0.00,WUHU21636XXSP,2013-08-21 05:08:00,
2013-08-20 22:09:00,60.6,49.3,30.11,NNE,22,0.0,0.0,66,0.00,,,0.00,WUHU21636XXSP,2013-08-21 05:09:00,
2013-08-20 22:12:00,60.6,49.3,30.11,ENE,67,0.0,0.0,66,0.00,,,0.00,WUHU21636XXSP,2013-08-21 05:12:00,
2013-08-20 22:13:00,60.4,49.5,30.11,East,90,0.0,0.0,67,0.00,,,0.00,WUHU21636XXSP,2013-08-21 05:13:00,
2013-08-20 22:14:00,60.4,49.5,30.11,East,90,0.0,0.0,67,0.00,,,0.00,WUHU21636XXSP,2013-08-21 05:14:00,
2013-08-20 22:17:00,60.4,49.5,30.11,North,0,0.8,0.8,67,0.00,,,0.00,WUHU21636XXSP,2013-08-21 05:17:00,
2013-08-20 22:18:00,60.4,49.5,30.11,North,0,0.8,0.8,67,0.00,,,0.00,WUHU21636XXSP,2013-08-21 05:18:00,
2013-08-20 22:19:00,60.4,49.5,30.11,North,0,0.8,0.8,67,0.00,,,0.00,WUHU21636XXSP,2013-08-21 05:19:00,
2013-08-20 22:22:00,60.3,49.4,30.11,NE,45,0.0,0.8,67,0.00,,,0.00,WUHU21636XXSP,2013-08-21 05:22:00,
2013-08-20 22:24:00,60.3,49.8,30.11,NE,45,0.0,0.8,68,0.00,,,0.00,WUHU21636XXSP,2013-08-21 05:24:00,
2013-08-20 22:27:00,60.1,49.6,30.11,NNE,22,0.0,0.8,68,0.00,,,0.00,WUHU21636XXSP,2013-08-21 05:27:00,
2013-08-20 22:29:00,60.1,49.6,30.11,North,0,0.0,0.8,68,0.00,,,0.00,WUHU21636XXSP,2013-08-21 05:29:00,
2013-08-20 22:33:00,59.9,49.4,30.11,NNE,22,0.0,0.0,68,0.00,,,0.00,WUHU21636XXSP,2013-08-21 05:33:00,
2013-08-20 22:34:00,59.9,49.4,30.11,NNE,22,0.0,0.0,68,0.00,,,0.00,WUHU21636XXSP,2013-08-21 05:34:00,
2013-08-20 22:35:00,59.9,49.4,30.11,NNE,22,0.0,0.0,68,0.00,,,0.00,WUHU21636XXSP,2013-08-21 05:35:00,
2013-08-20 22:38:00,59.9,49.4,30.11,NNE,22,0.0,0.0,68,0.00,,,0.00,WUHU21636XXSP,2013-08-21 05:38:00,
2013-08-20 22:39:00,59.7,49.3,30.11,NNE,22,0.0,0.0,68,0.00,,,0.00,WUHU21636XXSP,2013-08-21 05:39:00,
2013-08-20 22:40:00,59.7,49.3,30.11,NNE,22,0.0,0.0,68,0.00,,,0.00,WUHU21636XXSP,2013-08-21 05:40:00,
2013-08-20 22:43:00,59.7,49.7,30.11,NNE,22,0.0,0.0,69,0.00,,,0.00,WUHU21636XXSP,2013-08-21 05:43:00,
2013-08-20 22:44:00,59.7,49.7,30.11,NNE,22,0.0,0.0,69,0.00,,,0.00,WUHU21636XXSP,2013-08-21 05:44:00,
2013-08-20 22:45:00,59.7,49.7,30.11,NNE,22,0.0,0.0,69,0.00,,,0.00,WUHU21636XXSP,2013-08-21 05:45:00,
2013-08-20 22:48:00,59.5,49.5,30.11,NE,45,0.0,0.0,69,0.00,,,0.00,WUHU21636XXSP,2013-08-21 05:48:00,
2013-08-20 22:50:00,59.5,49.5,30.11,NNE,22,0.0,0.0,69,0.00,,,0.00,WUHU21636XXSP,2013-08-21 05:50:00,
2013-08-20 22:53:00,59.5,49.9,30.11,NE,45,0.0,0.0,70,0.00,,,0.00,WUHU21636XXSP,2013-08-21 05:53:00,
2013-08-20 22:55:00,59.5,49.5,30.11,North,0,0.0,0.0,69,0.00,,,0.00,WUHU21636XXSP,2013-08-21 05:55:00,
2013-08-20 22:56:00,59.5,49.5,30.11,North,0,0.0,0.0,69,0.00,,,0.00,WUHU21636XXSP,2013-08-21 05:56:00,
2013-08-20 22:59:00,59.5,49.9,30.10,North,0,0.0,0.0,70,0.00,,,0.00,WUHU21636XXSP,2013-08-21 05:59:00,
2013-08-20 23:00:00,59.5,49.9,30.11,North,0,0.0,0.0,70,0.00,,,0.00,WUHU21636XXSP,2013-08-21 06:00:00,
2013-08-20 23:01:00,59.5,49.9,30.11,North,0,0.0,0.0,70,0.00,,,0.00,WUHU21636XXSP,2013-08-21 06:01:00,
2013-08-20 23:04:00,59.4,49.8,30.11,NNE,22,0.0,0.0,70,0.00,,,0.00,WUHU21636XXSP,2013-08-21 06:04:00,
2013-08-20 23:05:00,59.2,49.6,30.11,North,0,0.0,0.0,70,0.00,,,0.00,WUHU21636XXSP,2013-08-21 06:05:00,
2013-08-20 23:06:00,59.2,49.6,30.11,North,0,0.0,0.0,70,0.00,,,0.00,WUHU21636XXSP,2013-08-21 06:06:00,
2013-08-20 23:10:00,59.0,49.8,30.11,NNE,22,0.0,0.0,71,0.00,,,0.00,WUHU21636XXSP,2013-08-21 06:10:00,
2013-08-20 23:11:00,59.0,49.8,30.11,NNE,22,0.0,0.0,71,0.00,,,0.00,WUHU21636XXSP,2013-08-21 06:11:00,
2013-08-20 23:15:00,59.0,49.4,30.11,NNE,22,0.0,0.0,70,0.00,,,0.00,WUHU21636XXSP,2013-08-21 06:15:00,
2013-08-20 23:16:00,59.0,49.4,30.11,North,0,0.0,0.0,70,0.00,,,0.00,WUHU21636XXSP,2013-08-21 06:16:00,
2013-08-20 23:20:00,59.0,49.8,30.11,North,0,1.5,1.5,71,0.00,,,0.00,WUHU21636XXSP,2013-08-21 06:20:00,
2013-08-20 23:22:00,59.0,49.8,30.10,North,0,1.5,1.5,71,0.00,,,0.00,WUHU21636XXSP,2013-08-21 06:22:00,
2013-08-20 23:25:00,59.0,49.8,30.11,NNE,22,2.9,2.9,71,0.00,,,0.00,WUHU21636XXSP,2013-08-21 06:25:00,
2013-08-20 23:26:00,59.0,49.8,30.11,NNE,22,2.9,2.9,71,0.00,,,0.00,WUHU21636XXSP,2013-08-21 06:26:00,
2013-08-20 23:30:00,59.4,49.4,30.11,NNE,16,5.7,11.4,69,0.00,,,0.00,WUHU21636XXSP,2013-08-21 06:30:00,
2013-08-20 23:31:00,59.4,49.0,30.11,NNE,22,7.1,12.3,68,0.00,,,0.00,WUHU21636XXSP,2013-08-21 06:31:00,
2013-08-20 23:32:00,59.5,49.1,30.10,NNE,19,5.9,12.3,68,0.00,,,0.00,WUHU21636XXSP,2013-08-21 06:32:00,
2013-08-20 23:35:00,59.7,49.3,30.11,NNE,22,2.6,12.3,68,0.00,,,0.00,WUHU21636XXSP,2013-08-21 06:35:00,
2013-08-20 23:36:00,59.7,49.3,30.10,NNE,22,2.6,12.3,68,0.00,,,0.00,WUHU21636XXSP,2013-08-21 06:36:00,
2013-08-20 23:37:00,59.7,48.8,30.10,North,0,0.0,12.3,67,0.00,,,0.00,WUHU21636XXSP,2013-08-21 06:37:00,
2013-08-20 23:40:00,59.7,48.8,30.10,North,0,0.0,12.3,67,0.00,,,0.00,WUHU21636XXSP,2013-08-21 06:40:00,
2013-08-20 23:41:00,59.9,49.0,30.10,NNE,22,2.2,8.5,67,0.00,,,0.00,WUHU21636XXSP,2013-08-21 06:41:00,
2013-08-20 23:42:00,59.9,49.0,30.11,NNE,22,2.2,4.4,67,0.00,,,0.00,WUHU21636XXSP,2013-08-21 06:42:00,
2013-08-20 23:45:00,59.7,49.3,30.11,NNE,22,0.0,2.2,68,0.00,,,0.00,WUHU21636XXSP,2013-08-21 06:45:00,
2013-08-20 23:46:00,59.7,49.3,30.11,NNE,22,0.0,2.2,68,0.00,,,0.00,WUHU21636XXSP,2013-08-21 06:46:00,
2013-08-20 23:47:00,59.7,49.3,30.10,NNE,22,0.0,2.2,68,0.00,,,0.00,WUHU21636XXSP,2013-08-21 06:47:00,
2013-08-20 23:50:00,59.4,49.4,30.10,North,0,0.0,2.2,69,0.00,,,0.00,WUHU21636XXSP,2013-08-21 06:50:00,
2013-08-20 23:51:00,59.4,49.4,30.10,North,0,0.0,2.2,69,0.00,,,0.00,WUHU21636XXSP,2013-08-21 06:51:00,
2013-08-20 23:52:00,59.2,49.2,30.10,North,0,0.0,2.2,69,0.00,,,0.00,WUHU21636XXSP,2013-08-21 06:52:00,
2013-08-20 23:56:00,59.0,49.4,30.11,ENE,67,0.0,0.0,70,0.00,,,0.00,WUHU21636XXSP,2013-08-21 06:56:00,
2013-08-20 23:57:00,59.0,49.4,30.11,ENE,67,0.0,0.0,70,0.00,,,0.00,WUHU21636XXSP,2013-08-21 06:57:00,